Time,TemperatureF,DewpointF,PressureIn,WindDirection,WindDirectionDegrees,WindSpeedMPH,WindSpeedGustMPH,Humidity,HourlyPrecipIn,Conditions,Clouds,dailyrainin,SoftwareType,DateUTC
2013-09-02 00:00:00,69.4,63.3,29.77,WSW,248,0.0,0.0,81,0.00,,SCT,0.21,WeatherDisplay:10.37,2013-09-02 04:00:00,
2013-09-02 00:01:00,69.4,63.3,29.77,WSW,248,0.0,0.0,81,0.00,RA,SCT,0.00,WeatherDisplay:10.37,2013-09-02 04:01:00,
2013-09-02 00:02:00,69.4,63.3,29.77,WSW,248,0.0,0.0,81,0.00,RA,SCT,0.00,WeatherDisplay:10.37,2013-09-02 04:02:00,
2013-09-02 00:03:00,69.4,63.3,29.77,WSW,248,0.0,0.0,81,0.00,RA,SCT,0.00,WeatherDisplay:10.37,2013-09-02 04:03:00,
2013-09-02 00:04:00,69.4,63.3,29.77,WSW,248,0.0,0.0,81,0.00,RA,SCT,0.00,WeatherDisplay:10.37,2013-09-02 04:04:00,
2013-09-02 00:08:00,69.3,63.2,29.77,WSW,248,0.0,0.0,81,0.00,RA,SCT,0.00,WeatherDisplay:10.37,2013-09-02 04:08:00,
2013-09-02 00:09:00,69.3,63.2,29.77,WSW,248,0.0,0.0,81,0.00,RA,SCT,0.00,WeatherDisplay:10.37,2013-09-02 04:09:00,
2013-09-02 00:10:00,69.3,63.2,29.77,WSW,248,0.0,0.0,81,0.00,RA,SCT,0.00,WeatherDisplay:10.37,2013-09-02 04:10:00,
2013-09-02 00:14:00,69.1,63.0,29.77,WSW,248,0.0,0.0,81,0.00,,SCT,0.00,WeatherDisplay:10.37,2013-09-02 04:14:00,
2013-09-02 00:15:00,69.1,63.0,29.77,WSW,248,0.0,0.0,81,0.00,,SCT,0.00,WeatherDisplay:10.37,2013-09-02 04:15:00,
2013-09-02 00:16:00,68.9,62.8,29.77,WSW,248,0.0,0.0,81,0.00,,SCT,0.00,WeatherDisplay:10.37,2013-09-02 04:16:00,
2013-09-02 00:19:00,68.9,62.8,29.77,WSW,248,0.0,0.0,81,0.00,,SCT,0.00,WeatherDisplay:10.37,2013-09-02 04:19:00,
2013-09-02 00:20:00,68.9,62.8,29.77,WSW,248,0.0,0.0,81,0.00,,SCT,0.00,WeatherDisplay:10.37,2013-09-02 04:20:00,
2013-09-02 00:22:00,68.9,62.8,29.77,WSW,248,0.0,0.0,81,0.00,,SCT,0.00,WeatherDisplay:10.37,2013-09-02 04:22:00,
2013-09-02 00:23:00,68.8,62.7,29.77,WSW,248,0.0,0.0,81,0.00,,SCT,0.00,WeatherDisplay:10.37,2013-09-02 04:23:00,
2013-09-02 00:24:00,68.8,62.7,29.77,WSW,248,0.0,0.0,81,0.00,,SCT,0.00,WeatherDisplay:10.37,2013-09-02 04:24:00,
2013-09-02 00:25:00,68.8,63.1,29.77,WSW,248,0.0,0.0,82,0.00,,SCT,0.00,WeatherDisplay:10.37,2013-09-02 04:25:00,
2013-09-02 00:28:00,68.8,63.1,29.77,WSW,248,0.0,0.0,82,0.00,,SCT,0.00,WeatherDisplay:10.37,2013-09-02 04:28:00,
2013-09-02 00:30:00,68.6,62.9,29.76,WSW,248,0.0,0.0,82,0.00,,SCT,0.00,WeatherDisplay:10.37,2013-09-02 04:30:00,
2013-09-02 00:31:00,68.6,62.9,29.76,WSW,248,0.0,0.0,82,0.00,,SCT,0.00,WeatherDisplay:10.37,2013-09-02 04:31:00,
2013-09-02 00:32:00,68.6,62.9,29.76,WSW,248,0.0,0.0,82,0.00,,SCT,0.00,WeatherDisplay:10.37,2013-09-02 04:32:00,
2013-09-02 00:34:00,68.6,62.9,29.76,WSW,248,0.0,0.0,82,0.00,,SCT,0.00,WeatherDisplay:10.37,2013-09-02 04:34:00,
2013-09-02 00:35:00,68.6,62.9,29.76,WSW,248,0.0,0.0,82,0.00,,SCT,0.00,WeatherDisplay:10.37,2013-09-02 04:35:00,
2013-09-02 00:38:00,68.4,62.7,29.76,WSW,248,0.0,0.0,82,0.00,,SCT,0.00,WeatherDisplay:10.37,2013-09-02 04:38:00,
2013-09-02 00:41:00,68.4,62.7,29.76,WSW,248,0.0,0.0,82,0.00,,SCT,0.00,WeatherDisplay:10.37,2013-09-02 04:41:00,
2013-09-02 00:43:00,68.4,62.7,29.76,WSW,248,0.0,0.0,82,0.00,,SCT,0.00,WeatherDisplay:10.37,2013-09-02 04:43:00,
2013-09-02 00:46:00,68.3,62.6,29.76,WSW,248,0.0,0.0,82,0.00,,SCT,0.00,WeatherDisplay:10.37,2013-09-02 04:46:00,
2013-09-02 00:49:00,68.3,62.6,29.77,WSW,248,0.0,0.0,82,0.00,,SCT,0.00,WeatherDisplay:10.37,2013-09-02 04:49:00,
2013-09-02 00:50:00,68.3,62.9,29.77,WSW,248,0.0,0.0,83,0.00,,SCT,0.00,WeatherDisplay:10.37,2013-09-02 04:50:00,
2013-09-02 00:51:00,68.3,62.6,29.77,WSW,248,0.0,0.0,82,0.00,,SCT,0.00,WeatherDisplay:10.37,2013-09-02 04:51:00,
2013-09-02 00:52:00,68.3,62.6,29.77,WSW,248,0.0,0.0,82,0.00,,SCT,0.00,WeatherDisplay:10.37,2013-09-02 04:52:00,
2013-09-02 00:55:00,68.1,62.4,29.77,WSW,248,0.0,0.0,82,0.00,,SCT,0.00,WeatherDisplay:10.37,2013-09-02 04:55:00,
2013-09-02 00:56:00,68.1,62.4,29.77,WSW,248,0.0,0.0,82,0.00,,SCT,0.00,WeatherDisplay:10.37,2013-09-02 04:56:00,
2013-09-02 00:58:00,68.1,62.4,29.77,WSW,248,0.0,0.0,82,0.00,,SCT,0.00,WeatherDisplay:10.37,2013-09-02 04:58:00,
2013-09-02 01:00:00,67.9,62.2,29.77,WSW,248,0.0,0.0,82,0.00,,SCT,0.00,WeatherDisplay:10.37,2013-09-02 05:00:00,
2013-09-02 01:03:00,67.9,62.2,29.77,WSW,248,0.0,0.0,82,0.00,,SCT,0.00,WeatherDisplay:10.37,2013-09-02 05:03:00,
2013-09-02 01:05:00,67.9,62.5,29.77,WSW,248,0.0,0.0,83,0.00,,SCT,0.00,WeatherDisplay:10.37,2013-09-02 05:05:00,
2013-09-02 01:08:00,67.9,62.5,29.76,WSW,248,0.0,0.0,83,0.00,,SCT,0.00,WeatherDisplay:10.37,2013-09-02 05:08:00,
2013-09-02 01:09:00,67.9,62.5,29.76,WSW,248,0.0,0.0,83,0.00,,SCT,0.00,WeatherDisplay:10.37,2013-09-02 05:09:00,
2013-09-02 01:11:00,67.9,62.5,29.76,WSW,248,0.0,0.0,83,0.00,,SCT,0.00,WeatherDisplay:10.37,2013-09-02 05:11:00,
2013-09-02 01:13:00,68.1,62.7,29.76,WSW,248,0.0,0.0,83,0.00,,SCT,0.00,WeatherDisplay:10.37,2013-09-02 05:13:00,
2013-09-02 01:16:00,68.1,62.7,29.76,WSW,248,0.0,0.0,83,0.00,,SCT,0.00,WeatherDisplay:10.37,2013-09-02 05:16:00,
2013-09-02 01:18:00,68.1,62.7,29.76,WSW,248,0.0,0.0,83,0.00,,SCT,0.00,WeatherDisplay:10.37,2013-09-02 05:18:00,
2013-09-02 01:19:00,68.1,63.1,29.76,WSW,248,0.0,0.0,84,0.00,,SCT,0.00,WeatherDisplay:10.37,2013-09-02 05:19:00,
2013-09-02 01:20:00,68.1,62.7,29.76,WSW,248,0.0,0.0,83,0.00,,SCT,0.00,WeatherDisplay:10.37,2013-09-02 05:20:00,
2013-09-02 01:25:00,68.3,63.3,29.76,WSW,248,0.0,0.0,84,0.00,,SCT,0.00,WeatherDisplay:10.37,2013-09-02 05:25:00,
2013-09-02 01:27:00,68.3,63.3,29.76,WSW,248,0.0,0.0,84,0.00,,SCT,0.00,WeatherDisplay:10.37,2013-09-02 05:27:00,
2013-09-02 01:28:00,68.3,63.3,29.76,WSW,248,0.0,0.0,84,0.00,,SCT,0.00,WeatherDisplay:10.37,2013-09-02 05:28:00,
2013-09-02 01:31:00,68.3,63.3,29.76,WSW,248,0.0,0.0,84,0.00,,SCT,0.00,WeatherDisplay:10.37,2013-09-02 05:31:00,
2013-09-02 01:32:00,68.3,62.9,29.76,WSW,248,0.0,0.0,83,0.00,,SCT,0.00,WeatherDisplay:10.37,2013-09-02 05:32:00,
2013-09-02 01:34:00,68.3,63.3,29.76,WSW,248,0.0,0.0,84,0.00,,SCT,0.00,WeatherDisplay:10.37,2013-09-02 05:34:00,
2013-09-02 01:35:00,68.3,63.3,29.76,WSW,248,0.0,0.0,84,0.00,,SCT,0.00,WeatherDisplay:10.37,2013-09-02 05:35:00,
2013-09-02 01:37:00,68.3,63.3,29.76,WSW,248,0.0,0.0,84,0.00,,SCT,0.00,WeatherDisplay:10.37,2013-09-02 05:37:00,
2013-09-02 01:38:00,68.3,63.3,29.76,WSW,248,0.0,0.0,84,0.00,,SCT,0.00,WeatherDisplay:10.37,2013-09-02 05:38:00,
2013-09-02 01:40:00,68.3,63.3,29.76,WSW,248,0.0,0.0,84,0.00,,SCT,0.00,WeatherDisplay:10.37,2013-09-02 05:40:00,
2013-09-02 01:42:00,68.1,63.1,29.76,WSW,248,0.0,0.0,84,0.00,,SCT,0.00,WeatherDisplay:10.37,2013-09-02 05:42:00,
2013-09-02 01:43:00,68.1,63.1,29.76,WSW,248,0.0,0.0,84,0.00,,SCT,0.00,WeatherDisplay:10.37,2013-09-02 05:43:00,
2013-09-02 01:45:00,68.1,63.1,29.76,WSW,248,0.0,0.0,84,0.00,,SCT,0.00,WeatherDisplay:10.37,2013-09-02 05:45:00,
2013-09-02 01:46:00,68.1,63.1,29.76,WSW,248,0.0,0.0,84,0.00,,SCT,0.00,WeatherDisplay:10.37,2013-09-02 05:46:00,
2013-09-02 01:47:00,68.1,63.1,29.76,WSW,248,0.0,0.0,84,0.00,,SCT,0.00,WeatherDisplay:10.37,2013-09-02 05:47:00,
2013-09-02 01:51:00,67.9,62.9,29.76,WSW,248,0.0,0.0,84,0.00,,SCT,0.00,WeatherDisplay:10.37,2013-09-02 05:51:00,
2013-09-02 01:52:00,67.9,62.9,29.76,WSW,248,0.0,0.0,84,0.00,,SCT,0.00,WeatherDisplay:10.37,2013-09-02 05:52:00,
2013-09-02 01:53:00,67.9,62.5,29.76,WSW,248,0.0,0.0,83,0.00,,SCT,0.00,WeatherDisplay:10.37,2013-09-02 05:53:00,
2013-09-02 01:58:00,67.8,62.8,29.76,WSW,248,0.0,0.0,84,0.00,,SCT,0.00,WeatherDisplay:10.37,2013-09-02 05:58:00,
2013-09-02 01:59:00,67.8,62.8,29.76,WSW,248,0.0,0.0,84,0.00,,SCT,0.00,WeatherDisplay:10.37,2013-09-02 05:59:00,
2013-09-02 02:00:00,67.8,62.8,29.76,WSW,248,0.0,0.0,84,0.00,,SCT,0.00,WeatherDisplay:10.37,2013-09-02 06:00:00,
2013-09-02 02:03:00,67.8,62.8,29.76,WSW,248,0.0,0.0,84,0.00,,SCT,0.00,WeatherDisplay:10.37,2013-09-02 06:03:00,
2013-09-02 02:05:00,67.8,62.8,29.76,WSW,248,0.0,0.0,84,0.00,,SCT,0.00,WeatherDisplay:10.37,2013-09-02 06:05:00,
2013-09-02 02:06:00,67.8,62.8,29.76,WSW,248,0.0,0.0,84,0.00,,SCT,0.00,WeatherDisplay:10.37,2013-09-02 06:06:00,
2013-09-02 02:08:00,67.8,62.8,29.76,WSW,248,0.0,0.0,84,0.00,,SCT,0.00,WeatherDisplay:10.37,2013-09-02 06:08:00,
2013-09-02 02:10:00,67.8,62.8,29.76,WSW,248,0.0,0.0,84,0.00,,SCT,0.00,WeatherDisplay:10.37,2013-09-02 06:10:00,
2013-09-02 02:13:00,67.8,62.8,29.76,WSW,248,0.0,0.0,84,0.00,,SCT,0.00,WeatherDisplay:10.37,2013-09-02 06:13:00,
2013-09-02 02:15:00,67.8,62.8,29.76,WSW,248,0.0,0.0,84,0.00,,SCT,0.00,WeatherDisplay:10.37,2013-09-02 06:15:00,
2013-09-02 02:16:00,67.8,62.8,29.76,WSW,248,0.0,0.0,84,0.00,,SCT,0.00,WeatherDisplay:10.37,2013-09-02 06:16:00,
2013-09-02 02:18:00,67.8,62.8,29.76,WSW,248,0.0,0.0,84,0.00,,SCT,0.00,WeatherDisplay:10.37,2013-09-02 06:18:00,
2013-09-02 02:22:00,67.9,62.9,29.76,WSW,248,0.0,0.0,84,0.00,,SCT,0.00,WeatherDisplay:10.37,2013-09-02 06:22:00,
2013-09-02 02:23:00,67.9,62.9,29.76,WSW,248,0.0,0.0,84,0.00,,SCT,0.00,WeatherDisplay:10.37,2013-09-02 06:23:00,
2013-09-02 02:24:00,67.9,62.9,29.76,WSW,248,0.0,0.0,84,0.00,,SCT,0.00,WeatherDisplay:10.37,2013-09-02 06:24:00,
2013-09-02 02:25:00,67.9,62.9,29.76,WSW,248,0.0,0.0,84,0.00,,SCT,0.00,WeatherDisplay:10.37,2013-09-02 06:25:00,
2013-09-02 02:27:00,67.9,62.9,29.76,WSW,248,0.0,0.0,84,0.00,,SCT,0.00,WeatherDisplay:10.37,2013-09-02 06:27:00,
2013-09-02 02:28:00,67.9,62.9,29.76,WSW,248,0.0,0.0,84,0.00,,SCT,0.00,WeatherDisplay:10.37,2013-09-02 06:28:00,
2013-09-02 02:31:00,67.9,62.9,29.76,WSW,248,0.0,0.0,84,0.00,,SCT,0.00,WeatherDisplay:10.37,2013-09-02 06:31:00,
2013-09-02 02:32:00,67.9,62.9,29.76,WSW,248,0.0,0.0,84,0.00,,SCT,0.00,WeatherDisplay:10.37,2013-09-02 06:32:00,
2013-09-02 02:35:00,67.9,62.9,29.76,WSW,248,0.0,0.0,84,0.00,,SCT,0.00,WeatherDisplay:10.37,2013-09-02 06:35:00,
2013-09-02 02:36:00,67.9,62.9,29.76,WSW,248,0.0,0.0,84,0.00,,SCT,0.00,WeatherDisplay:10.37,2013-09-02 06:36:00,
2013-09-02 02:37:00,68.1,63.1,29.76,WSW,248,0.0,0.0,84,0.00,,SCT,0.00,WeatherDisplay:10.37,2013-09-02 06:37:00,
2013-09-02 02:38:00,68.1,63.1,29.76,WSW,248,0.0,0.0,84,0.00,,SCT,0.00,WeatherDisplay:10.37,2013-09-02 06:38:00,
2013-09-02 02:40:00,68.1,63.1,29.76,WSW,248,0.0,0.0,84,0.00,,SCT,0.00,WeatherDisplay:10.37,2013-09-02 06:40:00,
2013-09-02 02:42:00,68.1,63.1,29.76,WSW,248,0.0,0.0,84,0.00,,SCT,0.00,WeatherDisplay:10.37,2013-09-02 06:42:00,
2013-09-02 02:43:00,68.1,63.1,29.76,WSW,248,0.0,0.0,84,0.00,,SCT,0.00,WeatherDisplay:10.37,2013-09-02 06:43:00,
2013-09-02 02:45:00,68.1,63.1,29.76,WSW,248,0.0,0.0,84,0.00,,SCT,0.00,WeatherDisplay:10.37,2013-09-02 06:45:00,
2013-09-02 02:46:00,68.3,63.3,29.76,WSW,248,0.0,0.0,84,0.00,,SCT,0.00,WeatherDisplay:10.37,2013-09-02 06:46:00,
2013-09-02 02:48:00,68.3,63.3,29.76,WSW,248,0.0,0.0,84,0.00,,SCT,0.00,WeatherDisplay:10.37,2013-09-02 06:48:00,
2013-09-02 02:49:00,68.3,63.3,29.76,WSW,248,0.0,0.0,84,0.00,,SCT,0.00,WeatherDisplay:10.37,2013-09-02 06:49:00,
2013-09-02 02:51:00,68.3,63.3,29.76,WSW,248,0.0,0.0,84,0.00,,SCT,0.00,WeatherDisplay:10.37,2013-09-02 06:51:00,
2013-09-02 02:52:00,68.3,63.3,29.76,WSW,248,0.0,0.0,84,0.00,,SCT,0.00,WeatherDisplay:10.37,2013-09-02 06:52:00,
2013-09-02 02:53:00,68.3,63.3,29.76,WSW,248,0.0,0.0,84,0.00,,SCT,0.00,WeatherDisplay:10.37,2013-09-02 06:53:00,
2013-09-02 02:57:00,68.3,63.3,29.76,WSW,248,0.0,0.0,84,0.00,,SCT,0.00,WeatherDisplay:10.37,2013-09-02 06:57:00,
2013-09-02 02:58:00,68.3,63.3,29.76,WSW,248,0.0,0.0,84,0.00,,SCT,0.00,WeatherDisplay:10.37,2013-09-02 06:58:00,
2013-09-02 03:01:00,68.3,63.3,29.76,WSW,248,0.0,0.0,84,0.00,,SCT,0.00,WeatherDisplay:10.37,2013-09-02 07:01:00,
2013-09-02 03:03:00,68.3,63.3,29.76,WSW,248,0.0,0.0,84,0.00,,SCT,0.00,WeatherDisplay:10.37,2013-09-02 07:03:00,
2013-09-02 03:04:00,68.3,63.3,29.76,WSW,248,0.0,0.0,84,0.00,,SCT,0.00,WeatherDisplay:10.37,2013-09-02 07:04:00,
2013-09-02 03:07:00,68.3,63.3,29.76,WSW,248,0.0,0.0,84,0.00,,SCT,0.00,WeatherDisplay:10.37,2013-09-02 07:07:00,
2013-09-02 03:09:00,68.3,63.3,29.76,WSW,248,0.0,0.0,84,0.00,,SCT,0.00,WeatherDisplay:10.37,2013-09-02 07:09:00,
2013-09-02 03:12:00,68.3,63.3,29.76,WSW,248,0.0,0.0,84,0.00,,SCT,0.00,WeatherDisplay:10.37,2013-09-02 07:12:00,
2013-09-02 03:13:00,68.3,63.3,29.76,WSW,248,0.0,0.0,84,0.00,,SCT,0.00,WeatherDisplay:10.37,2013-09-02 07:13:00,
2013-09-02 03:15:00,68.1,63.1,29.76,WSW,248,0.0,0.0,84,0.00,,SCT,0.00,WeatherDisplay:10.37,2013-09-02 07:15:00,
2013-09-02 03:16:00,68.1,63.1,29.76,WSW,248,0.0,0.0,84,0.00,,SCT,0.00,WeatherDisplay:10.37,2013-09-02 07:16:00,
2013-09-02 03:19:00,68.1,63.1,29.76,WSW,248,0.0,0.0,84,0.00,,SCT,0.00,WeatherDisplay:10.37,2013-09-02 07:19:00,
2013-09-02 03:20:00,67.9,62.9,29.76,WSW,248,0.0,0.0,84,0.00,,SCT,0.00,WeatherDisplay:10.37,2013-09-02 07:20:00,
2013-09-02 03:22:00,67.9,62.9,29.76,WSW,248,0.0,0.0,84,0.00,,SCT,0.00,WeatherDisplay:10.37,2013-09-02 07:22:00,
2013-09-02 03:24:00,67.8,62.8,29.76,WSW,248,0.0,0.0,84,0.00,,SCT,0.00,WeatherDisplay:10.37,2013-09-02 07:24:00,
2013-09-02 03:25:00,67.8,62.8,29.76,WSW,248,0.0,0.0,84,0.00,,SCT,0.00,WeatherDisplay:10.37,2013-09-02 07:25:00,
2013-09-02 03:27:00,67.8,62.8,29.76,WSW,248,0.0,0.0,84,0.00,,SCT,0.00,WeatherDisplay:10.37,2013-09-02 07:27:00,
2013-09-02 03:28:00,67.8,62.8,29.76,WSW,248,0.0,0.0,84,0.00,,SCT,0.00,WeatherDisplay:10.37,2013-09-02 07:28:00,
2013-09-02 03:30:00,67.6,62.9,29.76,WSW,248,0.0,0.0,85,0.00,,SCT,0.00,WeatherDisplay:10.37,2013-09-02 07:30:00,
2013-09-02 03:32:00,67.6,62.9,29.76,WSW,248,0.0,0.0,85,0.00,,SCT,0.00,WeatherDisplay:10.37,2013-09-02 07:32:00,
2013-09-02 03:35:00,67.4,62.7,29.76,WSW,248,0.0,0.0,85,0.00,,SCT,0.00,WeatherDisplay:10.37,2013-09-02 07:35:00,
2013-09-02 03:36:00,67.4,62.7,29.76,WSW,248,0.0,0.0,85,0.00,,SCT,0.00,WeatherDisplay:10.37,2013-09-02 07:36:00,
2013-09-02 03:37:00,67.4,62.7,29.76,WSW,248,0.0,0.0,85,0.00,,SCT,0.00,WeatherDisplay:10.37,2013-09-02 07:37:00,
2013-09-02 03:38:00,67.4,62.7,29.76,WSW,248,0.0,0.0,85,0.00,,SCT,0.00,WeatherDisplay:10.37,2013-09-02 07:38:00,
2013-09-02 03:40:00,67.3,62.6,29.76,WSW,248,0.0,0.0,85,0.00,,SCT,0.00,WeatherDisplay:10.37,2013-09-02 07:40:00,
2013-09-02 03:42:00,67.3,62.6,29.76,WSW,248,0.0,0.0,85,0.00,,SCT,0.00,WeatherDisplay:10.37,2013-09-02 07:42:00,
2013-09-02 03:43:00,67.3,62.6,29.76,WSW,248,0.0,0.0,85,0.00,,SCT,0.00,WeatherDisplay:10.37,2013-09-02 07:43:00,
2013-09-02 03:47:00,67.1,62.4,29.76,WSW,248,0.0,0.0,85,0.00,,SCT,0.00,WeatherDisplay:10.37,2013-09-02 07:47:00,
2013-09-02 03:49:00,67.1,62.4,29.76,WSW,248,0.0,0.0,85,0.00,,SCT,0.00,WeatherDisplay:10.37,2013-09-02 07:49:00,
2013-09-02 03:50:00,67.1,62.4,29.76,WSW,248,0.0,0.0,85,0.00,,SCT,0.00,WeatherDisplay:10.37,2013-09-02 07:50:00,
2013-09-02 03:53:00,67.1,62.4,29.76,WSW,248,0.0,0.0,85,0.00,,SCT,0.00,WeatherDisplay:10.37,2013-09-02 07:53:00,
2013-09-02 03:54:00,66.9,62.2,29.76,WSW,248,0.0,0.0,85,0.00,,SCT,0.00,WeatherDisplay:10.37,2013-09-02 07:54:00,
2013-09-02 03:58:00,66.9,62.2,29.76,WSW,248,0.0,0.0,85,0.00,,SCT,0.00,WeatherDisplay:10.37,2013-09-02 07:58:00,
2013-09-02 03:59:00,66.9,62.2,29.76,WSW,248,0.0,0.0,85,0.00,,SCT,0.00,WeatherDisplay:10.37,2013-09-02 07:59:00,
2013-09-02 04:02:00,66.8,62.1,29.75,WSW,248,0.0,0.0,85,0.00,,SCT,0.00,WeatherDisplay:10.37,2013-09-02 08:02:00,
2013-09-02 04:03:00,66.8,62.1,29.75,WSW,248,0.0,0.0,85,0.00,,SCT,0.00,WeatherDisplay:10.37,2013-09-02 08:03:00,
2013-09-02 04:04:00,66.8,62.1,29.75,WSW,248,0.0,0.0,85,0.00,,SCT,0.00,WeatherDisplay:10.37,2013-09-02 08:04:00,
2013-09-02 04:07:00,66.6,61.9,29.75,WSW,248,0.0,0.0,85,0.00,,SCT,0.00,WeatherDisplay:10.37,2013-09-02 08:07:00,
2013-09-02 04:08:00,66.6,61.9,29.75,WSW,248,0.0,0.0,85,0.00,,SCT,0.00,WeatherDisplay:10.37,2013-09-02 08:08:00,
2013-09-02 04:09:00,66.6,61.9,29.75,WSW,248,0.0,0.0,85,0.00,,SCT,0.00,WeatherDisplay:10.37,2013-09-02 08:09:00,
2013-09-02 04:11:00,66.4,61.8,29.75,WSW,248,0.0,0.0,85,0.00,,SCT,0.00,WeatherDisplay:10.37,2013-09-02 08:11:00,
2013-09-02 04:13:00,66.4,61.8,29.75,WSW,248,0.0,0.0,85,0.00,,SCT,0.00,WeatherDisplay:10.37,2013-09-02 08:13:00,
2013-09-02 04:16:00,66.4,61.8,29.75,WSW,248,0.0,0.0,85,0.00,,SCT,0.00,WeatherDisplay:10.37,2013-09-02 08:16:00,
2013-09-02 04:17:00,66.4,61.8,29.75,WSW,248,0.0,0.0,85,0.00,,SCT,0.00,WeatherDisplay:10.37,2013-09-02 08:17:00,
2013-09-02 04:19:00,66.4,61.8,29.75,WSW,248,0.0,0.0,85,0.00,,SCT,0.00,WeatherDisplay:10.37,2013-09-02 08:19:00,
2013-09-02 04:20:00,66.4,61.8,29.75,WSW,248,0.0,0.0,85,0.00,,SCT,0.00,WeatherDisplay:10.37,2013-09-02 08:20:00,
2013-09-02 04:21:00,66.4,61.8,29.75,WSW,248,0.0,0.0,85,0.00,,SCT,0.00,WeatherDisplay:10.37,2013-09-02 08:21:00,
2013-09-02 04:23:00,66.3,61.7,29.75,WSW,248,0.0,0.0,85,0.00,,SCT,0.00,WeatherDisplay:10.37,2013-09-02 08:23:00,
2013-09-02 04:24:00,66.3,61.7,29.75,WSW,248,0.0,0.0,85,0.00,,SCT,0.00,WeatherDisplay:10.37,2013-09-02 08:24:00,
2013-09-02 04:26:00,66.3,61.7,29.75,WSW,248,0.0,0.0,85,0.00,,SCT,0.00,WeatherDisplay:10.37,2013-09-02 08:26:00,
2013-09-02 04:27:00,66.3,61.7,29.75,WSW,248,0.0,0.0,85,0.00,,SCT,0.00,WeatherDisplay:10.37,2013-09-02 08:27:00,
2013-09-02 04:28:00,66.3,61.7,29.75,WSW,248,0.0,0.0,85,0.00,,SCT,0.00,WeatherDisplay:10.37,2013-09-02 08:28:00,
2013-09-02 04:29:00,66.1,61.5,29.75,WSW,248,0.0,0.0,85,0.00,,SCT,0.00,WeatherDisplay:10.37,2013-09-02 08:29:00,
2013-09-02 04:30:00,66.1,61.5,29.75,WSW,248,0.0,0.0,85,0.00,,SCT,0.00,WeatherDisplay:10.37,2013-09-02 08:30:00,
2013-09-02 04:32:00,66.0,61.4,29.75,WSW,248,0.0,0.0,85,0.00,,SCT,0.00,WeatherDisplay:10.37,2013-09-02 08:32:00,
2013-09-02 04:36:00,66.0,61.4,29.75,WSW,248,0.0,0.0,85,0.00,,SCT,0.00,WeatherDisplay:10.37,2013-09-02 08:36:00,
2013-09-02 04:38:00,65.8,61.2,29.75,WSW,248,0.0,0.0,85,0.00,,SCT,0.00,WeatherDisplay:10.37,2013-09-02 08:38:00,
2013-09-02 04:39:00,65.8,61.2,29.75,WSW,248,0.0,0.0,85,0.00,,SCT,0.00,WeatherDisplay:10.37,2013-09-02 08:39:00,
2013-09-02 04:41:00,65.8,61.2,29.75,WSW,248,0.0,0.0,85,0.00,,SCT,0.00,WeatherDisplay:10.37,2013-09-02 08:41:00,
2013-09-02 04:43:00,65.6,61.0,29.75,WSW,248,0.0,0.0,85,0.00,,SCT,0.00,WeatherDisplay:10.37,2013-09-02 08:43:00,
2013-09-02 04:45:00,65.6,61.0,29.76,WSW,248,0.0,0.0,85,0.00,,SCT,0.00,WeatherDisplay:10.37,2013-09-02 08:45:00,
2013-09-02 04:48:00,65.6,61.0,29.76,WSW,248,0.0,0.0,85,0.00,,SCT,0.00,WeatherDisplay:10.37,2013-09-02 08:48:00,
2013-09-02 04:49:00,65.6,61.0,29.76,WSW,248,0.0,0.0,85,0.00,,SCT,0.00,WeatherDisplay:10.37,2013-09-02 08:49:00,
2013-09-02 04:52:00,65.6,61.0,29.76,WSW,248,0.0,0.0,85,0.00,,SCT,0.00,WeatherDisplay:10.37,2013-09-02 08:52:00,
2013-09-02 04:53:00,65.6,61.0,29.76,WSW,248,0.0,0.0,85,0.00,,SCT,0.00,WeatherDisplay:10.37,2013-09-02 08:53:00,
2013-09-02 04:54:00,65.6,61.3,29.76,WSW,248,0.0,0.0,86,0.00,,SCT,0.00,WeatherDisplay:10.37,2013-09-02 08:54:00,
2013-09-02 04:56:00,65.6,61.3,29.76,WSW,248,0.0,0.0,86,0.00,,SCT,0.00,WeatherDisplay:10.37,2013-09-02 08:56:00,
2013-09-02 04:57:00,65.5,61.2,29.76,WSW,248,0.0,0.0,86,0.00,,SCT,0.00,WeatherDisplay:10.37,2013-09-02 08:57:00,
2013-09-02 04:58:00,65.5,61.2,29.76,WSW,248,0.0,0.0,86,0.00,,SCT,0.00,WeatherDisplay:10.37,2013-09-02 08:58:00,
2013-09-02 04:59:00,65.5,61.2,29.76,WSW,248,0.0,0.0,86,0.00,,SCT,0.00,WeatherDisplay:10.37,2013-09-02 08:59:00,
2013-09-02 05:03:00,65.5,61.2,29.76,WSW,248,0.0,0.0,86,0.00,,SCT,0.00,WeatherDisplay:10.37,2013-09-02 09:03:00,
2013-09-02 05:05:00,65.5,61.2,29.76,WSW,248,0.0,0.0,86,0.00,,SCT,0.00,WeatherDisplay:10.37,2013-09-02 09:05:00,
2013-09-02 05:06:00,65.5,61.2,29.76,WSW,248,0.0,0.0,86,0.00,,SCT,0.00,WeatherDisplay:10.37,2013-09-02 09:06:00,
2013-09-02 05:09:00,65.5,61.2,29.75,WSW,248,0.0,0.0,86,0.00,,SCT,0.00,WeatherDisplay:10.37,2013-09-02 09:09:00,
2013-09-02 05:10:00,65.5,61.2,29.75,WSW,248,0.0,0.0,86,0.00,,SCT,0.00,WeatherDisplay:10.37,2013-09-02 09:10:00,
2013-09-02 05:12:00,65.5,61.2,29.75,WSW,248,0.0,0.0,86,0.00,,SCT,0.00,WeatherDisplay:10.37,2013-09-02 09:12:00,
2013-09-02 05:13:00,65.5,61.2,29.75,WSW,248,0.0,0.0,86,0.00,,SCT,0.00,WeatherDisplay:10.37,2013-09-02 09:13:00,
2013-09-02 05:15:00,65.5,61.2,29.75,WSW,248,0.0,0.0,86,0.00,,SCT,0.00,WeatherDisplay:10.37,2013-09-02 09:15:00,
2013-09-02 05:17:00,65.5,61.2,29.75,WSW,248,0.0,0.0,86,0.00,,SCT,0.00,WeatherDisplay:10.37,2013-09-02 09:17:00,
2013-09-02 05:20:00,65.5,61.2,29.75,WSW,248,0.0,0.0,86,0.00,,SCT,0.00,WeatherDisplay:10.37,2013-09-02 09:20:00,
2013-09-02 05:21:00,65.5,61.2,29.75,WSW,248,0.0,0.0,86,0.00,,SCT,0.00,WeatherDisplay:10.37,2013-09-02 09:21:00,
2013-09-02 05:22:00,65.5,61.2,29.75,WSW,248,0.0,0.0,86,0.00,,SCT,0.00,WeatherDisplay:10.37,2013-09-02 09:22:00,
2013-09-02 05:23:00,65.5,61.2,29.75,WSW,248,0.0,0.0,86,0.00,,SCT,0.00,WeatherDisplay:10.37,2013-09-02 09:23:00,
2013-09-02 05:25:00,65.5,61.2,29.75,WSW,248,0.0,0.0,86,0.00,,SCT,0.00,WeatherDisplay:10.37,2013-09-02 09:25:00,
2013-09-02 05:26:00,65.3,61.0,29.75,WSW,248,0.0,0.0,86,0.00,,SCT,0.00,WeatherDisplay:10.37,2013-09-02 09:26:00,
2013-09-02 05:28:00,65.3,61.0,29.75,WSW,248,0.0,0.0,86,0.00,,SCT,0.00,WeatherDisplay:10.37,2013-09-02 09:28:00,
2013-09-02 05:29:00,65.3,61.0,29.75,WSW,248,0.0,0.0,86,0.00,,SCT,0.00,WeatherDisplay:10.37,2013-09-02 09:29:00,
2013-09-02 05:30:00,65.3,61.0,29.75,WSW,248,0.0,0.0,86,0.00,,SCT,0.00,WeatherDisplay:10.37,2013-09-02 09:30:00,
2013-09-02 05:32:00,65.3,61.0,29.75,WSW,248,0.0,0.0,86,0.00,,SCT,0.00,WeatherDisplay:10.37,2013-09-02 09:32:00,
2013-09-02 05:33:00,65.3,61.0,29.75,WSW,248,0.0,0.0,86,0.00,,SCT,0.00,WeatherDisplay:10.37,2013-09-02 09:33:00,
2013-09-02 05:36:00,65.3,61.0,29.75,WSW,248,0.0,0.0,86,0.00,,SCT,0.00,WeatherDisplay:10.37,2013-09-02 09:36:00,
2013-09-02 05:37:00,65.2,60.9,29.75,WSW,248,0.0,0.0,86,0.00,,SCT,0.00,WeatherDisplay:10.37,2013-09-02 09:37:00,
2013-09-02 05:40:00,65.2,60.9,29.75,WSW,248,0.0,0.0,86,0.00,,SCT,0.00,WeatherDisplay:10.37,2013-09-02 09:40:00,
2013-09-02 05:41:00,65.2,60.9,29.75,WSW,248,0.0,0.0,86,0.00,,SCT,0.00,WeatherDisplay:10.37,2013-09-02 09:41:00,
2013-09-02 05:42:00,65.2,60.9,29.75,WSW,248,0.0,0.0,86,0.00,,SCT,0.00,WeatherDisplay:10.37,2013-09-02 09:42:00,
2013-09-02 05:45:00,65.2,60.9,29.75,WSW,248,0.0,0.0,86,0.00,,SCT,0.00,WeatherDisplay:10.37,2013-09-02 09:45:00,
2013-09-02 05:46:00,65.2,60.9,29.75,WSW,248,0.0,0.0,86,0.00,,SCT,0.00,WeatherDisplay:10.37,2013-09-02 09:46:00,
2013-09-02 05:47:00,65.2,60.9,29.75,WSW,248,0.0,0.0,86,0.00,,SCT,0.00,WeatherDisplay:10.37,2013-09-02 09:47:00,
2013-09-02 05:51:00,65.0,60.7,29.75,WSW,248,0.0,0.0,86,0.00,,SCT,0.00,WeatherDisplay:10.37,2013-09-02 09:51:00,
2013-09-02 05:52:00,65.0,60.7,29.75,WSW,248,0.0,0.0,86,0.00,,SCT,0.00,WeatherDisplay:10.37,2013-09-02 09:52:00,
2013-09-02 05:53:00,65.0,60.7,29.75,WSW,248,0.0,0.0,86,0.00,,SCT,0.00,WeatherDisplay:10.37,2013-09-02 09:53:00,
2013-09-02 05:55:00,65.0,60.7,29.75,WSW,248,0.0,0.0,86,0.00,,SCT,0.00,WeatherDisplay:10.37,2013-09-02 09:55:00,
2013-09-02 05:57:00,65.0,60.7,29.75,WSW,248,0.0,0.0,86,0.00,,SCT,0.00,WeatherDisplay:10.37,2013-09-02 09:57:00,
2013-09-02 05:59:00,65.0,60.7,29.75,WSW,248,0.0,0.0,86,0.00,,SCT,0.00,WeatherDisplay:10.37,2013-09-02 09:59:00,
2013-09-02 06:00:00,65.0,60.7,29.75,WSW,248,0.0,0.0,86,0.00,,SCT,0.00,WeatherDisplay:10.37,2013-09-02 10:00:00,
2013-09-02 06:04:00,64.8,60.5,29.76,WSW,248,0.0,0.0,86,0.00,,SCT,0.00,WeatherDisplay:10.37,2013-09-02 10:04:00,
2013-09-02 06:05:00,64.8,60.5,29.76,WSW,248,0.0,0.0,86,0.00,,SCT,0.00,WeatherDisplay:10.37,2013-09-02 10:05:00,
2013-09-02 06:07:00,64.8,60.5,29.76,WSW,248,0.0,0.0,86,0.00,,SCT,0.00,WeatherDisplay:10.37,2013-09-02 10:07:00,
2013-09-02 06:08:00,64.8,60.5,29.76,WSW,248,0.0,0.0,86,0.00,,SCT,0.00,WeatherDisplay:10.37,2013-09-02 10:08:00,
2013-09-02 06:10:00,64.8,60.5,29.76,WSW,248,0.0,0.0,86,0.00,,SCT,0.00,WeatherDisplay:10.37,2013-09-02 10:10:00,
2013-09-02 06:12:00,64.8,60.5,29.76,WSW,248,0.0,0.0,86,0.00,,SCT,0.00,WeatherDisplay:10.37,2013-09-02 10:12:00,
2013-09-02 06:14:00,64.7,60.7,29.77,WSW,248,0.0,0.0,87,0.00,,SCT,0.00,WeatherDisplay:10.37,2013-09-02 10:14:00,
2013-09-02 06:15:00,64.7,60.7,29.77,WSW,248,0.0,0.0,87,0.00,,SCT,0.00,WeatherDisplay:10.37,2013-09-02 10:15:00,
2013-09-02 06:16:00,64.7,60.7,29.77,WSW,248,0.0,0.0,87,0.00,,SCT,0.00,WeatherDisplay:10.37,2013-09-02 10:16:00,
2013-09-02 06:18:00,64.7,60.4,29.76,WSW,248,0.0,0.0,86,0.00,,SCT,0.00,WeatherDisplay:10.37,2013-09-02 10:18:00,
2013-09-02 06:20:00,64.7,60.4,29.76,WSW,248,0.0,0.0,86,0.00,,SCT,0.00,WeatherDisplay:10.37,2013-09-02 10:20:00,
2013-09-02 06:22:00,64.7,60.7,29.76,WSW,248,0.0,0.0,87,0.00,,SCT,0.00,WeatherDisplay:10.37,2013-09-02 10:22:00,
2013-09-02 06:23:00,64.7,60.7,29.76,WSW,248,0.0,0.0,87,0.00,,SCT,0.00,WeatherDisplay:10.37,2013-09-02 10:23:00,
2013-09-02 06:24:00,64.7,60.7,29.76,WSW,248,0.0,0.0,87,0.00,,SCT,0.00,WeatherDisplay:10.37,2013-09-02 10:24:00,
2013-09-02 06:25:00,64.7,60.7,29.76,WSW,248,0.0,0.0,87,0.00,,SCT,0.00,WeatherDisplay:10.37,2013-09-02 10:25:00,
2013-09-02 06:28:00,64.5,60.5,29.77,WSW,248,0.0,0.0,87,0.00,,SCT,0.00,WeatherDisplay:10.37,2013-09-02 10:28:00,
2013-09-02 06:30:00,64.5,60.5,29.77,WSW,248,0.0,0.0,87,0.00,,SCT,0.00,WeatherDisplay:10.37,2013-09-02 10:30:00,
2013-09-02 06:32:00,64.5,60.5,29.77,WSW,248,0.0,0.0,87,0.00,,SCT,0.00,WeatherDisplay:10.37,2013-09-02 10:32:00,
2013-09-02 06:33:00,64.5,60.5,29.77,WSW,248,0.0,0.0,87,0.00,,SCT,0.00,WeatherDisplay:10.37,2013-09-02 10:33:00,
2013-09-02 06:34:00,64.5,60.5,29.77,WSW,248,0.0,0.0,87,0.00,,SCT,0.00,WeatherDisplay:10.37,2013-09-02 10:34:00,
2013-09-02 06:35:00,64.5,60.5,29.77,WSW,248,0.0,0.0,87,0.00,,SCT,0.00,WeatherDisplay:10.37,2013-09-02 10:35:00,
2013-09-02 06:39:00,64.3,60.3,29.77,WSW,248,0.0,0.0,87,0.00,,SCT,0.00,WeatherDisplay:10.37,2013-09-02 10:39:00,
2013-09-02 06:40:00,64.3,60.3,29.77,WSW,248,0.0,0.0,87,0.00,,SCT,0.00,WeatherDisplay:10.37,2013-09-02 10:40:00,
2013-09-02 06:41:00,64.3,60.3,29.77,WSW,248,0.0,0.0,87,0.00,,SCT,0.00,WeatherDisplay:10.37,2013-09-02 10:41:00,
2013-09-02 06:42:00,64.3,60.0,29.77,WSW,248,0.0,0.0,86,0.00,,SCT,0.00,WeatherDisplay:10.37,2013-09-02 10:42:00,
2013-09-02 06:45:00,64.3,60.3,29.78,WSW,248,0.0,0.0,87,0.00,,SCT,0.00,WeatherDisplay:10.37,2013-09-02 10:45:00,
2013-09-02 06:46:00,64.2,60.2,29.78,WSW,248,0.0,0.0,87,0.00,,SCT,0.00,WeatherDisplay:10.37,2013-09-02 10:46:00,
2013-09-02 06:49:00,64.2,60.2,29.79,WSW,248,0.0,0.0,87,0.00,,SCT,0.00,WeatherDisplay:10.37,2013-09-02 10:49:00,
2013-09-02 06:50:00,64.2,60.2,29.79,WSW,248,0.0,0.0,87,0.00,,SCT,0.00,WeatherDisplay:10.37,2013-09-02 10:50:00,
2013-09-02 06:51:00,64.2,60.2,29.79,WSW,248,0.0,0.0,87,0.00,,SCT,0.00,WeatherDisplay:10.37,2013-09-02 10:51:00,
2013-09-02 06:53:00,64.2,60.2,29.79,WSW,248,0.0,0.0,87,0.00,,SCT,0.00,WeatherDisplay:10.37,2013-09-02 10:53:00,
2013-09-02 06:57:00,64.2,60.2,29.79,WSW,248,0.0,0.0,87,0.00,,SCT,0.00,WeatherDisplay:10.37,2013-09-02 10:57:00,
2013-09-02 06:58:00,64.2,60.2,29.79,WSW,248,0.0,0.0,87,0.00,,SCT,0.00,WeatherDisplay:10.37,2013-09-02 10:58:00,
2013-09-02 07:00:00,64.2,60.2,29.79,WSW,248,0.0,0.0,87,0.00,,SCT,0.00,WeatherDisplay:10.37,2013-09-02 11:00:00,
2013-09-02 07:02:00,64.0,60.1,29.79,WSW,248,0.0,0.0,87,0.00,,SCT,0.00,WeatherDisplay:10.37,2013-09-02 11:02:00,
2013-09-02 07:06:00,64.0,60.1,29.80,WSW,248,0.0,0.0,87,0.00,,SCT,0.00,WeatherDisplay:10.37,2013-09-02 11:06:00,
2013-09-02 07:08:00,64.0,60.1,29.80,WSW,249,0.0,0.0,87,0.00,,SCT,0.00,WeatherDisplay:10.37,2013-09-02 11:08:00,
2013-09-02 07:11:00,64.0,60.1,29.80,WSW,249,0.0,0.0,87,0.00,,SCT,0.00,WeatherDisplay:10.37,2013-09-02 11:11:00,
2013-09-02 07:12:00,64.0,60.1,29.80,WSW,249,0.0,0.0,87,0.00,,SCT,0.00,WeatherDisplay:10.37,2013-09-02 11:12:00,
2013-09-02 07:13:00,64.0,60.1,29.80,WSW,249,0.0,0.0,87,0.00,,SCT,0.00,WeatherDisplay:10.37,2013-09-02 11:13:00,
2013-09-02 07:14:00,64.0,60.1,29.80,WSW,249,0.0,0.0,87,0.00,,SCT,0.00,WeatherDisplay:10.37,2013-09-02 11:14:00,
2013-09-02 07:15:00,64.2,60.2,29.80,WSW,249,0.0,0.0,87,0.00,,SCT,0.00,WeatherDisplay:10.37,2013-09-02 11:15:00,
2013-09-02 07:17:00,64.2,60.2,29.80,WSW,249,0.0,0.0,87,0.00,,SCT,0.00,WeatherDisplay:10.37,2013-09-02 11:17:00,
2013-09-02 07:21:00,64.2,60.2,29.81,WSW,249,0.0,0.0,87,0.00,,SCT,0.00,WeatherDisplay:10.37,2013-09-02 11:21:00,
2013-09-02 07:22:00,64.3,60.3,29.81,WSW,249,0.0,0.0,87,0.00,,SCT,0.00,WeatherDisplay:10.37,2013-09-02 11:22:00,
2013-09-02 07:23:00,64.3,60.3,29.81,WSW,249,0.0,0.0,87,0.00,,SCT,0.00,WeatherDisplay:10.37,2013-09-02 11:23:00,
2013-09-02 07:24:00,64.3,60.3,29.81,WSW,249,0.0,0.0,87,0.00,,SCT,0.00,WeatherDisplay:10.37,2013-09-02 11:24:00,
2013-09-02 07:25:00,64.3,60.3,29.81,WSW,249,0.0,0.0,87,0.00,,SCT,0.00,WeatherDisplay:10.37,2013-09-02 11:25:00,
2013-09-02 07:26:00,64.5,60.5,29.80,WSW,249,0.0,0.0,87,0.00,,SCT,0.00,WeatherDisplay:10.37,2013-09-02 11:26:00,
2013-09-02 07:27:00,64.5,60.5,29.80,WSW,249,0.0,0.0,87,0.00,,SCT,0.00,WeatherDisplay:10.37,2013-09-02 11:27:00,
2013-09-02 07:28:00,64.5,60.5,29.80,WSW,249,0.0,0.0,87,0.00,,SCT,0.00,WeatherDisplay:10.37,2013-09-02 11:28:00,
2013-09-02 07:30:00,64.7,60.7,29.80,WSW,249,0.0,0.0,87,0.00,,SCT,0.00,WeatherDisplay:10.37,2013-09-02 11:30:00,
2013-09-02 07:31:00,64.7,60.7,29.80,WSW,249,0.0,0.0,87,0.00,,SCT,0.00,WeatherDisplay:10.37,2013-09-02 11:31:00,
2013-09-02 07:33:00,64.8,61.2,29.80,WSW,249,0.0,0.0,88,0.00,,SCT,0.00,WeatherDisplay:10.37,2013-09-02 11:33:00,
2013-09-02 07:34:00,64.8,61.2,29.80,WSW,249,0.0,0.0,88,0.00,,SCT,0.00,WeatherDisplay:10.37,2013-09-02 11:34:00,
2013-09-02 07:38:00,65.2,61.6,29.80,WSW,249,0.0,0.0,88,0.00,,SCT,0.00,WeatherDisplay:10.37,2013-09-02 11:38:00,
2013-09-02 07:40:00,65.5,61.9,29.80,WSW,249,0.0,0.0,88,0.00,,SCT,0.00,WeatherDisplay:10.37,2013-09-02 11:40:00,
2013-09-02 07:41:00,65.5,61.9,29.80,WSW,249,0.0,0.0,88,0.00,,SCT,0.00,WeatherDisplay:10.37,2013-09-02 11:41:00,
2013-09-02 07:43:00,65.6,61.9,29.80,WSW,249,0.0,0.0,88,0.00,,SCT,0.00,WeatherDisplay:10.37,2013-09-02 11:43:00,
2013-09-02 07:45:00,65.8,62.1,29.80,WSW,249,0.0,0.0,88,0.00,,SCT,0.00,WeatherDisplay:10.37,2013-09-02 11:45:00,
2013-09-02 07:46:00,65.8,62.1,29.80,WSW,249,0.0,0.0,88,0.00,,SCT,0.00,WeatherDisplay:10.37,2013-09-02 11:46:00,
2013-09-02 07:48:00,66.0,62.3,29.80,WSW,249,0.0,0.0,88,0.00,,SCT,0.00,WeatherDisplay:10.37,2013-09-02 11:48:00,
2013-09-02 07:50:00,66.0,62.3,29.80,WSW,249,0.0,0.0,88,0.00,,SCT,0.00,WeatherDisplay:10.37,2013-09-02 11:50:00,
2013-09-02 07:51:00,66.1,62.4,29.80,WSW,249,0.0,0.0,88,0.00,,SCT,0.00,WeatherDisplay:10.37,2013-09-02 11:51:00,
2013-09-02 07:53:00,66.3,62.6,29.80,WSW,249,0.0,0.0,88,0.00,,SCT,0.00,WeatherDisplay:10.37,2013-09-02 11:53:00,
2013-09-02 07:54:00,66.3,62.6,29.80,WSW,249,0.0,0.0,88,0.00,,SCT,0.00,WeatherDisplay:10.37,2013-09-02 11:54:00,
2013-09-02 07:57:00,66.4,62.7,29.80,WSW,249,0.0,0.0,88,0.00,,SCT,0.00,WeatherDisplay:10.37,2013-09-02 11:57:00,
2013-09-02 07:58:00,66.6,62.9,29.80,WSW,249,0.0,0.0,88,0.00,,SCT,0.00,WeatherDisplay:10.37,2013-09-02 11:58:00,
2013-09-02 08:00:00,66.8,63.1,29.80,WSW,249,0.0,0.0,88,0.00,,SCT,0.00,WeatherDisplay:10.37,2013-09-02 12:00:00,
2013-09-02 08:02:00,66.9,63.2,29.80,WSW,249,0.0,0.0,88,0.00,,SCT,0.00,WeatherDisplay:10.37,2013-09-02 12:02:00,
2013-09-02 08:03:00,67.1,63.4,29.80,WSW,249,0.0,0.0,88,0.00,,SCT,0.00,WeatherDisplay:10.37,2013-09-02 12:03:00,
2013-09-02 08:06:00,67.3,63.6,29.80,WSW,249,0.0,0.0,88,0.00,,SCT,0.00,WeatherDisplay:10.37,2013-09-02 12:06:00,
2013-09-02 08:07:00,67.4,63.7,29.80,WSW,249,0.0,0.0,88,0.00,,SCT,0.00,WeatherDisplay:10.37,2013-09-02 12:07:00,
2013-09-02 08:08:00,67.4,63.7,29.80,WSW,249,0.0,0.0,88,0.00,,SCT,0.00,WeatherDisplay:10.37,2013-09-02 12:08:00,
2013-09-02 08:09:00,67.6,63.9,29.80,WSW,249,0.0,0.0,88,0.00,,SCT,0.00,WeatherDisplay:10.37,2013-09-02 12:09:00,
2013-09-02 08:13:00,67.9,64.2,29.80,WSW,249,0.0,0.0,88,0.00,,SCT,0.00,WeatherDisplay:10.37,2013-09-02 12:13:00,
2013-09-02 08:14:00,68.1,64.4,29.80,WSW,249,0.0,0.0,88,0.00,,SCT,0.00,WeatherDisplay:10.37,2013-09-02 12:14:00,
2013-09-02 08:18:00,68.4,64.7,29.80,WSW,249,0.0,0.0,88,0.00,,SCT,0.00,WeatherDisplay:10.37,2013-09-02 12:18:00,
2013-09-02 08:20:00,68.8,65.1,29.80,WSW,249,0.0,0.0,88,0.00,,SCT,0.00,WeatherDisplay:10.37,2013-09-02 12:20:00,
2013-09-02 08:21:00,68.8,65.1,29.80,WSW,249,0.0,0.0,88,0.00,,SCT,0.00,WeatherDisplay:10.37,2013-09-02 12:21:00,
2013-09-02 08:22:00,68.9,65.2,29.80,WSW,249,0.0,0.0,88,0.00,,SCT,0.00,WeatherDisplay:10.37,2013-09-02 12:22:00,
2013-09-02 08:24:00,69.1,65.4,29.80,WSW,249,0.0,0.0,88,0.00,,SCT,0.00,WeatherDisplay:10.37,2013-09-02 12:24:00,
2013-09-02 08:26:00,69.3,65.6,29.80,WSW,249,0.0,0.0,88,0.00,,SCT,0.00,WeatherDisplay:10.37,2013-09-02 12:26:00,
2013-09-02 08:27:00,69.3,65.6,29.80,WSW,249,0.0,0.0,88,0.00,,SCT,0.00,WeatherDisplay:10.37,2013-09-02 12:27:00,
2013-09-02 08:29:00,69.4,65.7,29.80,WSW,249,0.0,0.0,88,0.00,,SCT,0.00,WeatherDisplay:10.37,2013-09-02 12:29:00,
2013-09-02 08:32:00,69.8,66.1,29.80,WSW,249,0.0,0.0,88,0.00,,SCT,0.00,WeatherDisplay:10.37,2013-09-02 12:32:00,
2013-09-02 08:34:00,69.9,66.2,29.80,WSW,249,0.0,0.0,88,0.00,,SCT,0.00,WeatherDisplay:10.37,2013-09-02 12:34:00,
2013-09-02 08:35:00,70.1,66.4,29.80,WSW,249,0.0,0.0,88,0.00,,SCT,0.00,WeatherDisplay:10.37,2013-09-02 12:35:00,
2013-09-02 08:38:00,70.3,66.6,29.80,WSW,249,0.0,0.0,88,0.00,,SCT,0.00,WeatherDisplay:10.37,2013-09-02 12:38:00,
2013-09-02 08:39:00,70.4,66.7,29.80,WSW,246,0.0,1.2,88,0.00,,SCT,0.00,WeatherDisplay:10.37,2013-09-02 12:39:00,
2013-09-02 08:41:00,70.6,66.9,29.80,WSW,245,1.1,1.1,88,0.00,,SCT,0.00,WeatherDisplay:10.37,2013-09-02 12:41:00,
2013-09-02 08:42:00,70.8,67.1,29.80,WSW,246,3.0,3.0,88,0.00,,SCT,0.00,WeatherDisplay:10.37,2013-09-02 12:42:00,
2013-09-02 08:44:00,70.9,67.2,29.80,WSW,246,3.5,3.5,88,0.00,,SCT,0.00,WeatherDisplay:10.37,2013-09-02 12:44:00,
2013-09-02 08:47:00,70.9,67.2,29.80,WSW,254,4.6,4.6,88,0.00,,SCT,0.00,WeatherDisplay:10.37,2013-09-02 12:47:00,
2013-09-02 08:48:00,71.1,67.4,29.80,SW,232,5.8,5.8,88,0.00,,SCT,0.00,WeatherDisplay:10.37,2013-09-02 12:48:00,
2013-09-02 08:51:00,71.3,67.6,29.80,WSW,250,6.9,6.9,88,0.00,,SCT,0.00,WeatherDisplay:10.37,2013-09-02 12:51:00,
2013-09-02 08:52:00,71.3,67.6,29.80,WSW,247,6.9,6.9,88,0.00,,SCT,0.00,WeatherDisplay:10.37,2013-09-02 12:52:00,
2013-09-02 08:53:00,71.3,67.6,29.80,WSW,245,5.8,5.8,88,0.00,,SCT,0.00,WeatherDisplay:10.37,2013-09-02 12:53:00,
2013-09-02 08:56:00,71.5,67.8,29.80,West,259,4.0,4.0,88,0.00,,SCT,0.00,WeatherDisplay:10.37,2013-09-02 12:56:00,
2013-09-02 08:57:00,71.5,67.8,29.80,West,259,4.6,4.6,88,0.00,,SCT,0.00,WeatherDisplay:10.37,2013-09-02 12:57:00,
2013-09-02 08:58:00,71.6,67.9,29.80,SW,230,4.6,4.6,88,0.00,,SCT,0.00,WeatherDisplay:10.37,2013-09-02 12:58:00,
2013-09-02 09:00:00,71.6,67.9,29.80,SW,231,3.5,3.5,88,0.00,,SCT,0.00,WeatherDisplay:10.37,2013-09-02 13:00:00,
2013-09-02 09:02:00,71.6,67.9,29.80,WSW,245,9.2,9.2,88,0.00,,SCT,0.00,WeatherDisplay:10.37,2013-09-02 13:02:00,
2013-09-02 09:05:00,71.8,68.1,29.80,West,266,3.5,3.5,88,0.00,,SCT,0.00,WeatherDisplay:10.37,2013-09-02 13:05:00,
2013-09-02 09:06:00,71.8,68.1,29.80,West,264,5.8,5.8,88,0.00,,SCT,0.00,WeatherDisplay:10.37,2013-09-02 13:06:00,
2013-09-02 09:08:00,72.0,68.2,29.80,West,263,4.6,0.0,88,0.00,,SCT,0.00,WeatherDisplay:10.37,2013-09-02 13:08:00,
2013-09-02 09:10:00,72.0,68.2,29.80,West,259,3.5,3.5,88,0.00,,SCT,0.00,WeatherDisplay:10.37,2013-09-02 13:10:00,
2013-09-02 09:13:00,72.1,68.3,29.80,WSW,257,4.0,4.0,88,0.00,,SCT,0.00,WeatherDisplay:10.37,2013-09-02 13:13:00,
2013-09-02 09:16:00,72.1,68.3,29.80,WSW,258,3.5,3.5,88,0.00,,SCT,0.00,WeatherDisplay:10.37,2013-09-02 13:16:00,
2013-09-02 09:17:00,72.1,68.3,29.80,WSW,258,3.5,3.5,88,0.00,,SCT,0.00,WeatherDisplay:10.37,2013-09-02 13:17:00,
2013-09-02 09:19:00,72.3,68.5,29.80,WSW,258,0.0,0.0,88,0.00,,SCT,0.00,WeatherDisplay:10.37,2013-09-02 13:19:00,
2013-09-02 09:22:00,72.3,68.5,29.80,WSW,257,1.1,1.1,88,0.00,,SCT,0.00,WeatherDisplay:10.37,2013-09-02 13:22:00,
2013-09-02 09:23:00,72.5,68.7,29.80,WSW,257,1.1,1.1,88,0.00,,SCT,0.00,WeatherDisplay:10.37,2013-09-02 13:23:00,
2013-09-02 09:24:00,72.5,68.7,29.80,WSW,257,3.5,3.5,88,0.00,,SCT,0.00,WeatherDisplay:10.37,2013-09-02 13:24:00,
2013-09-02 09:27:00,72.7,68.9,29.80,WSW,258,0.0,0.0,88,0.00,,SCT,0.00,WeatherDisplay:10.37,2013-09-02 13:27:00,
2013-09-02 09:28:00,72.7,68.9,29.80,WSW,258,1.0,1.0,88,0.00,,SCT,0.00,WeatherDisplay:10.37,2013-09-02 13:28:00,
2013-09-02 09:29:00,72.8,69.0,29.80,West,264,1.1,0.0,88,0.00,,SCT,0.00,WeatherDisplay:10.37,2013-09-02 13:29:00,
2013-09-02 09:30:00,72.8,69.0,29.80,WSW,242,5.0,5.0,88,0.00,,SCT,0.00,WeatherDisplay:10.37,2013-09-02 13:30:00,
2013-09-02 09:31:00,73.0,69.2,29.80,West,259,5.8,5.8,88,0.00,,SCT,0.00,WeatherDisplay:10.37,2013-09-02 13:31:00,
2013-09-02 09:33:00,73.0,69.2,29.80,SW,235,3.5,0.0,88,0.00,,SCT,0.00,WeatherDisplay:10.37,2013-09-02 13:33:00,
2013-09-02 09:36:00,73.3,69.5,29.80,WSW,237,3.5,3.5,88,0.00,,SCT,0.00,WeatherDisplay:10.37,2013-09-02 13:36:00,
2013-09-02 09:38:00,73.3,69.5,29.80,West,261,5.8,5.8,88,0.00,,SCT,0.00,WeatherDisplay:10.37,2013-09-02 13:38:00,
2013-09-02 09:40:00,73.5,69.7,29.80,West,267,9.2,9.2,88,0.00,,SCT,0.00,WeatherDisplay:10.37,2013-09-02 13:40:00,
2013-09-02 09:41:00,73.5,69.7,29.80,West,261,12.0,12.0,88,0.00,,SCT,0.00,WeatherDisplay:10.37,2013-09-02 13:41:00,
2013-09-02 09:42:00,73.5,69.4,29.80,West,264,13.8,13.8,87,0.00,,SCT,0.00,WeatherDisplay:10.37,2013-09-02 13:42:00,
2013-09-02 09:43:00,73.5,69.4,29.80,SW,229,11.5,11.5,87,0.00,,SCT,0.00,WeatherDisplay:10.37,2013-09-02 13:43:00,
2013-09-02 09:46:00,73.5,69.1,29.80,WSW,238,6.9,6.9,86,0.00,,SCT,0.00,WeatherDisplay:10.37,2013-09-02 13:46:00,
2013-09-02 09:48:00,73.5,69.4,29.80,SW,223,3.5,3.5,87,0.00,,SCT,0.00,WeatherDisplay:10.37,2013-09-02 13:48:00,
2013-09-02 09:49:00,73.7,69.6,29.80,SW,223,3.5,0.0,87,0.00,,SCT,0.00,WeatherDisplay:10.37,2013-09-02 13:49:00,
2013-09-02 09:50:00,73.7,69.6,29.80,SW,223,0.0,0.9,87,0.00,,SCT,0.00,WeatherDisplay:10.37,2013-09-02 13:50:00,
2013-09-02 09:52:00,73.7,69.6,29.80,WSW,258,3.5,3.5,87,0.00,,SCT,0.00,WeatherDisplay:10.37,2013-09-02 13:52:00,
2013-09-02 09:53:00,73.9,69.8,29.80,WSW,238,5.8,5.8,87,0.00,,SCT,0.00,WeatherDisplay:10.37,2013-09-02 13:53:00,
2013-09-02 09:54:00,73.9,69.8,29.80,WSW,241,3.5,3.5,87,0.00,,SCT,0.00,WeatherDisplay:10.37,2013-09-02 13:54:00,
2013-09-02 09:58:00,74.0,69.5,29.80,West,263,10.4,10.4,86,0.00,,SCT,0.00,WeatherDisplay:10.37,2013-09-02 13:58:00,
2013-09-02 09:59:00,74.0,69.5,29.80,West,261,11.5,11.5,86,0.00,,SCT,0.00,WeatherDisplay:10.37,2013-09-02 13:59:00,
2013-09-02 10:01:00,74.2,69.7,29.80,West,269,11.5,11.5,86,0.00,,SCT,0.00,WeatherDisplay:10.37,2013-09-02 14:01:00,
2013-09-02 10:02:00,74.2,69.4,29.80,West,268,10.4,10.4,85,0.00,,SCT,0.00,WeatherDisplay:10.37,2013-09-02 14:02:00,
2013-09-02 10:03:00,74.2,69.4,29.80,WSW,246,8.1,8.1,85,0.00,,SCT,0.00,WeatherDisplay:10.37,2013-09-02 14:03:00,
2013-09-02 10:06:00,74.2,69.4,29.80,WSW,245,5.8,5.8,85,0.00,CLR,SCT,0.00,WeatherDisplay:10.37,2013-09-02 14:06:00,
2013-09-02 10:07:00,74.4,69.6,29.80,West,267,6.9,6.9,85,0.00,CLR,SCT,0.00,WeatherDisplay:10.37,2013-09-02 14:07:00,
2013-09-02 10:08:00,74.4,69.6,29.80,West,269,9.2,9.2,85,0.00,CLR,SCT,0.00,WeatherDisplay:10.37,2013-09-02 14:08:00,
2013-09-02 10:09:00,74.4,69.6,29.80,West,261,9.2,9.2,85,0.00,CLR,SCT,0.00,WeatherDisplay:10.37,2013-09-02 14:09:00,
2013-09-02 10:11:00,74.4,69.2,29.80,WSW,253,11.5,11.5,84,0.00,CLR,SCT,0.00,WeatherDisplay:10.37,2013-09-02 14:11:00,
2013-09-02 10:12:00,74.6,69.4,29.80,West,259,11.5,11.5,84,0.00,CLR,SCT,0.00,WeatherDisplay:10.37,2013-09-02 14:12:00,
2013-09-02 10:15:00,74.6,69.4,29.80,WSW,257,9.2,9.2,84,0.00,CLR,SCT,0.00,WeatherDisplay:10.37,2013-09-02 14:15:00,
2013-09-02 10:16:00,74.7,69.5,29.80,West,263,9.2,9.2,84,0.00,CLR,SCT,0.00,WeatherDisplay:10.37,2013-09-02 14:16:00,
2013-09-02 10:18:00,74.9,70.1,29.80,West,267,5.8,5.8,85,0.00,CLR,SCT,0.00,WeatherDisplay:10.37,2013-09-02 14:18:00,
2013-09-02 10:19:00,75.1,69.9,29.80,WSW,242,6.9,6.9,84,0.00,CLR,SCT,0.00,WeatherDisplay:10.37,2013-09-02 14:19:00,
2013-09-02 10:21:00,75.3,70.1,29.80,SW,229,6.9,6.9,84,0.00,CLR,SCT,0.00,WeatherDisplay:10.37,2013-09-02 14:21:00,
2013-09-02 10:23:00,75.3,70.1,29.80,WSW,258,6.0,6.0,84,0.00,CLR,SCT,0.00,WeatherDisplay:10.37,2013-09-02 14:23:00,
2013-09-02 10:24:00,75.4,70.2,29.80,WSW,252,9.2,9.2,84,0.00,CLR,SCT,0.00,WeatherDisplay:10.37,2013-09-02 14:24:00,
2013-09-02 10:28:00,75.6,70.4,29.80,WSW,252,6.9,6.9,84,0.00,CLR,SCT,0.00,WeatherDisplay:10.37,2013-09-02 14:28:00,
2013-09-02 10:29:00,75.6,70.4,29.80,SW,227,5.8,5.8,84,0.00,CLR,SCT,0.00,WeatherDisplay:10.37,2013-09-02 14:29:00,
2013-09-02 10:30:00,75.6,70.4,29.80,WSW,244,6.9,6.9,84,0.00,CLR,SCT,0.00,WeatherDisplay:10.37,2013-09-02 14:30:00,
2013-09-02 10:31:00,75.6,70.4,29.80,WSW,257,5.0,5.0,84,0.00,CLR,SCT,0.00,WeatherDisplay:10.37,2013-09-02 14:31:00,
2013-09-02 10:33:00,75.8,70.6,29.81,WNW,282,4.6,4.6,84,0.00,CLR,SCT,0.00,WeatherDisplay:10.37,2013-09-02 14:33:00,
2013-09-02 10:34:00,75.8,70.6,29.81,WSW,246,8.0,8.0,84,0.00,CLR,SCT,0.00,WeatherDisplay:10.37,2013-09-02 14:34:00,
2013-09-02 10:35:00,75.8,70.6,29.81,WSW,247,9.2,9.2,84,0.00,CLR,SCT,0.00,WeatherDisplay:10.37,2013-09-02 14:35:00,
2013-09-02 10:37:00,76.0,70.5,29.81,WSW,246,5.8,5.8,83,0.00,CLR,SCT,0.00,WeatherDisplay:10.37,2013-09-02 14:37:00,
2013-09-02 10:38:00,76.0,70.8,29.81,West,261,7.0,7.0,84,0.00,CLR,SCT,0.00,WeatherDisplay:10.37,2013-09-02 14:38:00,
2013-09-02 10:39:00,76.0,70.5,29.81,WSW,242,6.9,6.9,83,0.00,CLR,SCT,0.00,WeatherDisplay:10.37,2013-09-02 14:39:00,
2013-09-02 10:41:00,76.1,70.6,29.81,SW,229,9.0,9.0,83,0.00,CLR,SCT,0.00,WeatherDisplay:10.37,2013-09-02 14:41:00,
2013-09-02 10:43:00,76.1,70.6,29.81,WSW,249,11.5,11.5,83,0.00,CLR,SCT,0.00,WeatherDisplay:10.37,2013-09-02 14:43:00,
2013-09-02 10:45:00,76.1,70.6,29.81,West,263,7.0,7.0,83,0.00,CLR,SCT,0.00,WeatherDisplay:10.37,2013-09-02 14:45:00,
2013-09-02 10:46:00,76.3,70.8,29.81,West,261,6.9,6.9,83,0.00,CLR,SCT,0.00,WeatherDisplay:10.37,2013-09-02 14:46:00,
2013-09-02 10:47:00,76.3,70.4,29.81,West,261,6.9,6.9,82,0.00,CLR,SCT,0.00,WeatherDisplay:10.37,2013-09-02 14:47:00,
2013-09-02 10:50:00,76.5,70.9,29.81,West,267,6.9,6.9,83,0.00,CLR,SCT,0.00,WeatherDisplay:10.37,2013-09-02 14:50:00,
2013-09-02 10:51:00,76.5,70.9,29.81,West,267,3.5,3.5,83,0.00,CLR,SCT,0.00,WeatherDisplay:10.37,2013-09-02 14:51:00,
2013-09-02 10:52:00,76.5,70.9,29.81,WSW,247,3.0,3.0,83,0.00,CLR,SCT,0.00,WeatherDisplay:10.37,2013-09-02 14:52:00,
2013-09-02 10:53:00,76.7,71.1,29.81,WSW,252,3.5,3.5,83,0.00,CLR,SCT,0.00,WeatherDisplay:10.37,2013-09-02 14:53:00,
2013-09-02 10:55:00,76.8,71.2,29.81,WSW,250,4.0,4.0,83,0.00,CLR,SCT,0.00,WeatherDisplay:10.37,2013-09-02 14:55:00,
2013-09-02 10:56:00,76.8,71.2,29.81,WSW,243,4.6,4.6,83,0.00,CLR,SCT,0.00,WeatherDisplay:10.37,2013-09-02 14:56:00,
2013-09-02 10:57:00,77.0,71.4,29.81,West,261,7.0,7.0,83,0.00,CLR,SCT,0.00,WeatherDisplay:10.37,2013-09-02 14:57:00,
2013-09-02 10:58:00,77.2,71.6,29.81,West,267,6.9,6.9,83,0.00,CLR,SCT,0.00,WeatherDisplay:10.37,2013-09-02 14:58:00,
2013-09-02 11:03:00,77.6,71.7,29.81,WSW,246,0.0,0.0,82,0.00,CLR,SCT,0.00,WeatherDisplay:10.37,2013-09-02 15:03:00,
2013-09-02 11:04:00,77.7,71.8,29.81,WSW,246,0.0,0.0,82,0.00,CLR,SCT,0.00,WeatherDisplay:10.37,2013-09-02 15:04:00,
2013-09-02 11:05:00,77.7,71.8,29.81,WSW,255,5.0,5.0,82,0.00,CLR,SCT,0.00,WeatherDisplay:10.37,2013-09-02 15:05:00,
2013-09-02 11:06:00,77.9,72.0,29.81,West,276,4.6,4.6,82,0.00,CLR,SCT,0.00,WeatherDisplay:10.37,2013-09-02 15:06:00,
2013-09-02 11:07:00,77.9,72.0,29.81,West,276,5.8,0.0,82,0.00,CLR,SCT,0.00,WeatherDisplay:10.37,2013-09-02 15:07:00,
2013-09-02 11:08:00,78.1,72.2,29.81,West,275,0.0,0.1,82,0.00,CLR,SCT,0.00,WeatherDisplay:10.37,2013-09-02 15:08:00,
2013-09-02 11:13:00,78.1,71.8,29.81,WSW,238,11.5,11.5,81,0.00,CLR,SCT,0.00,WeatherDisplay:10.37,2013-09-02 15:13:00,
2013-09-02 11:14:00,78.1,71.8,29.81,West,261,8.1,8.1,81,0.00,CLR,SCT,0.00,WeatherDisplay:10.37,2013-09-02 15:14:00,
2013-09-02 11:18:00,78.1,71.1,29.82,West,266,10.4,10.4,79,0.00,CLR,SCT,0.00,WeatherDisplay:10.37,2013-09-02 15:18:00,
2013-09-02 11:19:00,78.1,71.4,29.82,WSW,252,3.5,3.5,80,0.00,CLR,SCT,0.00,WeatherDisplay:10.37,2013-09-02 15:19:00,
2013-09-02 11:24:00,77.9,70.9,29.82,West,261,10.4,10.4,79,0.00,CLR,SCT,0.00,WeatherDisplay:10.37,2013-09-02 15:24:00,
2013-09-02 11:25:00,77.9,70.9,29.82,WSW,258,9.2,9.2,79,0.00,CLR,SCT,0.00,WeatherDisplay:10.37,2013-09-02 15:25:00,
2013-09-02 11:29:00,77.7,71.0,29.82,West,259,6.9,6.9,80,0.00,CLR,SCT,0.00,WeatherDisplay:10.37,2013-09-02 15:29:00,
2013-09-02 11:31:00,77.7,71.0,29.82,WNW,288,4.6,4.6,80,0.00,CLR,SCT,0.00,WeatherDisplay:10.37,2013-09-02 15:31:00,
2013-09-02 11:32:00,77.7,71.0,29.82,SW,234,3.5,3.5,80,0.00,CLR,SCT,0.00,WeatherDisplay:10.37,2013-09-02 15:32:00,
2013-09-02 11:35:00,77.7,71.0,29.82,West,261,6.0,6.0,80,0.00,CLR,SCT,0.00,WeatherDisplay:10.37,2013-09-02 15:35:00,
2013-09-02 11:37:00,77.7,70.7,29.82,WSW,242,6.9,6.9,79,0.00,CLR,SCT,0.00,WeatherDisplay:10.37,2013-09-02 15:37:00,
2013-09-02 11:39:00,77.7,70.7,29.82,West,265,9.2,9.2,79,0.00,CLR,SCT,0.00,WeatherDisplay:10.37,2013-09-02 15:39:00,
2013-09-02 11:40:00,77.7,70.7,29.82,WSW,252,9.2,9.2,79,0.00,CLR,SCT,0.00,WeatherDisplay:10.37,2013-09-02 15:40:00,
2013-09-02 11:41:00,77.7,71.0,29.82,West,266,4.6,4.6,80,0.00,CLR,SCT,0.00,WeatherDisplay:10.37,2013-09-02 15:41:00,
2013-09-02 11:45:00,77.7,70.7,29.82,WSW,244,3.5,3.5,79,0.00,CLR,SCT,0.00,WeatherDisplay:10.37,2013-09-02 15:45:00,
2013-09-02 11:46:00,77.7,70.7,29.81,SW,221,3.5,3.5,79,0.00,CLR,SCT,0.00,WeatherDisplay:10.37,2013-09-02 15:46:00,
2013-09-02 11:47:00,77.7,70.7,29.81,SW,221,3.5,3.5,79,0.00,CLR,SCT,0.00,WeatherDisplay:10.37,2013-09-02 15:47:00,
2013-09-02 11:50:00,77.9,70.9,29.81,WSW,257,2.3,2.3,79,0.00,CLR,SCT,0.00,WeatherDisplay:10.37,2013-09-02 15:50:00,
2013-09-02 11:51:00,77.9,71.2,29.81,West,261,3.5,3.5,80,0.00,CLR,SCT,0.00,WeatherDisplay:10.37,2013-09-02 15:51:00,
2013-09-02 11:52:00,77.9,70.9,29.81,WSW,258,3.5,3.5,79,0.00,CLR,SCT,0.00,WeatherDisplay:10.37,2013-09-02 15:52:00,
2013-09-02 11:53:00,78.1,71.1,29.81,SW,232,5.8,5.8,79,0.00,CLR,SCT,0.00,WeatherDisplay:10.37,2013-09-02 15:53:00,
2013-09-02 11:55:00,78.1,71.1,29.81,WSW,255,5.8,5.8,79,0.00,CLR,SCT,0.00,WeatherDisplay:10.37,2013-09-02 15:55:00,
2013-09-02 11:58:00,78.1,71.1,29.81,West,260,5.8,5.8,79,0.00,CLR,SCT,0.00,WeatherDisplay:10.37,2013-09-02 15:58:00,
2013-09-02 11:59:00,78.1,71.1,29.81,West,263,1.1,1.1,79,0.00,CLR,SCT,0.00,WeatherDisplay:10.37,2013-09-02 15:59:00,
2013-09-02 12:02:00,78.3,70.9,29.81,West,262,6.9,6.9,78,0.00,CLR,SCT,0.00,WeatherDisplay:10.37,2013-09-02 16:02:00,
2013-09-02 12:03:00,78.3,70.9,29.81,West,259,9.2,9.2,78,0.00,CLR,SCT,0.00,WeatherDisplay:10.37,2013-09-02 16:03:00,
2013-09-02 12:04:00,78.3,70.9,29.81,West,268,6.9,6.9,78,0.00,CLR,SCT,0.00,WeatherDisplay:10.37,2013-09-02 16:04:00,
2013-09-02 12:08:00,78.6,71.5,29.81,WSW,242,3.5,0.0,79,0.00,CLR,SCT,0.00,WeatherDisplay:10.37,2013-09-02 16:08:00,
2013-09-02 12:09:00,78.6,71.5,29.81,WSW,242,1.0,1.0,79,0.00,CLR,SCT,0.00,WeatherDisplay:10.37,2013-09-02 16:09:00,
2013-09-02 12:10:00,78.8,71.7,29.81,WSW,244,3.5,3.5,79,0.00,CLR,SCT,0.00,WeatherDisplay:10.37,2013-09-02 16:10:00,
2013-09-02 12:12:00,78.8,71.7,29.81,WSW,244,2.3,2.3,79,0.00,CLR,SCT,0.00,WeatherDisplay:10.37,2013-09-02 16:12:00,
2013-09-02 12:13:00,79.0,71.9,29.81,WSW,244,3.5,3.5,79,0.00,CLR,SCT,0.00,WeatherDisplay:10.37,2013-09-02 16:13:00,
2013-09-02 12:14:00,79.0,71.9,29.81,WSW,244,3.5,3.5,79,0.00,CLR,SCT,0.00,WeatherDisplay:10.37,2013-09-02 16:14:00,
2013-09-02 12:16:00,79.0,71.6,29.81,West,264,4.0,4.0,78,0.00,CLR,SCT,0.00,WeatherDisplay:10.37,2013-09-02 16:16:00,
2013-09-02 12:17:00,79.0,71.6,29.81,WSW,246,5.8,5.8,78,0.00,CLR,SCT,0.00,WeatherDisplay:10.37,2013-09-02 16:17:00,
2013-09-02 12:19:00,78.8,71.4,29.81,WNW,290,5.8,5.8,78,0.00,CLR,SCT,0.00,WeatherDisplay:10.37,2013-09-02 16:19:00,
2013-09-02 12:23:00,78.6,70.8,29.81,West,263,5.0,5.0,77,0.00,CLR,SCT,0.00,WeatherDisplay:10.37,2013-09-02 16:23:00,
2013-09-02 12:24:00,78.6,70.8,29.81,West,263,6.9,6.9,77,0.00,CLR,SCT,0.00,WeatherDisplay:10.37,2013-09-02 16:24:00,
2013-09-02 12:25:00,78.6,70.8,29.81,West,263,5.8,5.8,77,0.00,CLR,SCT,0.00,WeatherDisplay:10.37,2013-09-02 16:25:00,
2013-09-02 12:27:00,78.6,71.2,29.81,West,259,0.0,0.3,78,0.00,CLR,SCT,0.00,WeatherDisplay:10.37,2013-09-02 16:27:00,
2013-09-02 12:29:00,78.8,71.4,29.81,SW,234,2.0,2.0,78,0.00,CLR,SCT,0.00,WeatherDisplay:10.37,2013-09-02 16:29:00,
2013-09-02 12:30:00,78.8,71.4,29.81,WSW,249,2.3,3.2,78,0.00,CLR,SCT,0.00,WeatherDisplay:10.37,2013-09-02 16:30:00,
2013-09-02 12:35:00,78.8,71.0,29.81,SW,225,5.8,5.8,77,0.00,CLR,SCT,0.00,WeatherDisplay:10.37,2013-09-02 16:35:00,
2013-09-02 12:37:00,79.0,71.2,29.81,SW,227,3.5,3.5,77,0.00,CLR,SCT,0.00,WeatherDisplay:10.37,2013-09-02 16:37:00,
2013-09-02 12:39:00,79.0,71.6,29.81,WSW,251,0.0,1.4,78,0.00,CLR,SCT,0.00,WeatherDisplay:10.37,2013-09-02 16:39:00,
2013-09-02 12:40:00,79.0,71.2,29.81,WSW,251,4.6,0.0,77,0.00,CLR,SCT,0.00,WeatherDisplay:10.37,2013-09-02 16:40:00,
2013-09-02 12:43:00,79.0,71.6,29.81,West,271,6.0,6.0,78,0.00,CLR,SCT,0.00,WeatherDisplay:10.37,2013-09-02 16:43:00,
2013-09-02 12:45:00,79.0,71.2,29.81,West,261,10.4,10.4,77,0.00,CLR,SCT,0.00,WeatherDisplay:10.37,2013-09-02 16:45:00,
2013-09-02 12:47:00,79.0,70.8,29.81,West,261,6.9,6.9,76,0.00,CLR,SCT,0.00,WeatherDisplay:10.37,2013-09-02 16:47:00,
2013-09-02 12:48:00,79.0,70.8,29.81,West,259,6.9,6.9,76,0.00,CLR,SCT,0.00,WeatherDisplay:10.37,2013-09-02 16:48:00,
2013-09-02 12:49:00,79.0,71.2,29.81,West,259,5.8,5.8,77,0.00,CLR,SCT,0.00,WeatherDisplay:10.37,2013-09-02 16:49:00,
2013-09-02 12:50:00,79.0,71.2,29.81,SW,227,3.5,3.5,77,0.00,CLR,SCT,0.00,WeatherDisplay:10.37,2013-09-02 16:50:00,
2013-09-02 12:54:00,79.0,70.8,29.81,WSW,250,4.0,4.0,76,0.00,CLR,SCT,0.00,WeatherDisplay:10.37,2013-09-02 16:54:00,
2013-09-02 12:56:00,79.0,70.8,29.80,WSW,244,4.6,4.6,76,0.00,CLR,SCT,0.00,WeatherDisplay:10.37,2013-09-02 16:56:00,
2013-09-02 12:57:00,79.0,70.8,29.80,WSW,244,4.0,4.0,76,0.00,CLR,SCT,0.00,WeatherDisplay:10.37,2013-09-02 16:57:00,
2013-09-02 12:58:00,79.0,70.8,29.80,WSW,252,4.6,4.6,76,0.00,CLR,SCT,0.00,WeatherDisplay:10.37,2013-09-02 16:58:00,
2013-09-02 12:59:00,79.0,71.2,29.80,WSW,252,4.6,4.6,77,0.00,CLR,SCT,0.00,WeatherDisplay:10.37,2013-09-02 16:59:00,
2013-09-02 13:00:00,79.0,71.2,29.80,WSW,252,2.3,0.0,77,0.00,CLR,SCT,0.00,WeatherDisplay:10.37,2013-09-02 17:00:00,
2013-09-02 13:01:00,79.0,71.2,29.80,WSW,252,0.0,0.0,77,0.00,CLR,SCT,0.00,WeatherDisplay:10.37,2013-09-02 17:01:00,
2013-09-02 13:02:00,79.0,71.2,29.80,WSW,252,0.0,0.3,77,0.00,CLR,SCT,0.00,WeatherDisplay:10.37,2013-09-02 17:02:00,
2013-09-02 13:05:00,79.2,71.4,29.80,WSW,250,3.5,0.0,77,0.00,CLR,SCT,0.00,WeatherDisplay:10.37,2013-09-02 17:05:00,
2013-09-02 13:07:00,79.4,71.6,29.80,WSW,250,5.8,5.8,77,0.00,CLR,SCT,0.00,WeatherDisplay:10.37,2013-09-02 17:07:00,
2013-09-02 13:09:00,79.6,71.8,29.79,WSW,256,2.3,2.3,77,0.00,CLR,SCT,0.00,WeatherDisplay:10.37,2013-09-02 17:09:00,
2013-09-02 13:11:00,79.8,71.6,29.80,WSW,242,4.6,4.6,76,0.00,CLR,SCT,0.00,WeatherDisplay:10.37,2013-09-02 17:11:00,
2013-09-02 13:13:00,79.8,71.6,29.79,SW,232,5.8,5.8,76,0.00,CLR,SCT,0.00,WeatherDisplay:10.37,2013-09-02 17:13:00,
2013-09-02 13:14:00,79.8,71.6,29.79,WSW,238,4.6,4.6,76,0.00,CLR,SCT,0.00,WeatherDisplay:10.37,2013-09-02 17:14:00,
2013-09-02 13:16:00,79.8,71.6,29.79,WSW,240,4.0,4.0,76,0.00,CLR,SCT,0.00,WeatherDisplay:10.37,2013-09-02 17:16:00,
2013-09-02 13:17:00,79.8,71.2,29.80,WSW,241,4.6,4.6,75,0.00,CLR,SCT,0.00,WeatherDisplay:10.37,2013-09-02 17:17:00,
2013-09-02 13:18:00,79.8,71.6,29.79,WSW,246,3.5,3.5,76,0.00,CLR,SCT,0.00,WeatherDisplay:10.37,2013-09-02 17:18:00,
2013-09-02 13:19:00,79.8,71.6,29.79,WSW,256,3.5,3.5,76,0.00,CLR,SCT,0.00,WeatherDisplay:10.37,2013-09-02 17:19:00,
2013-09-02 13:21:00,79.8,71.6,29.79,WSW,256,3.5,3.5,76,0.00,CLR,SCT,0.00,WeatherDisplay:10.37,2013-09-02 17:21:00,
2013-09-02 13:23:00,79.8,71.6,29.79,WSW,256,0.0,0.0,76,0.00,CLR,SCT,0.00,WeatherDisplay:10.37,2013-09-02 17:23:00,
2013-09-02 13:24:00,79.9,71.7,29.79,WSW,246,1.0,1.0,76,0.00,CLR,SCT,0.00,WeatherDisplay:10.37,2013-09-02 17:24:00,
2013-09-02 13:25:00,79.9,71.7,29.79,WSW,246,2.3,0.0,76,0.00,CLR,SCT,0.00,WeatherDisplay:10.37,2013-09-02 17:25:00,
2013-09-02 13:26:00,79.9,71.3,29.79,WSW,258,6.0,6.0,75,0.00,CLR,SCT,0.00,WeatherDisplay:10.37,2013-09-02 17:26:00,
2013-09-02 13:29:00,79.9,70.9,29.79,WSW,237,6.9,6.9,74,0.00,CLR,SCT,0.00,WeatherDisplay:10.37,2013-09-02 17:29:00,
2013-09-02 13:30:00,79.8,71.2,29.79,SW,217,9.2,9.2,75,0.00,CLR,SCT,0.00,WeatherDisplay:10.37,2013-09-02 17:30:00,
2013-09-02 13:31:00,79.8,71.2,29.79,WSW,244,4.0,4.0,75,0.00,CLR,SCT,0.00,WeatherDisplay:10.37,2013-09-02 17:31:00,
2013-09-02 13:33:00,79.8,70.8,29.79,WNW,285,9.2,9.2,74,0.00,CLR,SCT,0.00,WeatherDisplay:10.37,2013-09-02 17:33:00,
2013-09-02 13:36:00,79.8,70.8,29.79,West,263,4.6,4.6,74,0.00,CLR,SCT,0.00,WeatherDisplay:10.37,2013-09-02 17:36:00,
2013-09-02 13:37:00,79.6,71.0,29.79,West,263,4.6,4.6,75,0.00,CLR,SCT,0.00,WeatherDisplay:10.37,2013-09-02 17:37:00,
2013-09-02 13:40:00,79.6,71.0,29.79,WSW,257,5.8,5.8,75,0.00,CLR,SCT,0.00,WeatherDisplay:10.37,2013-09-02 17:40:00,
2013-09-02 13:42:00,79.6,71.0,29.79,West,267,2.0,2.0,75,0.00,CLR,SCT,0.00,WeatherDisplay:10.37,2013-09-02 17:42:00,
2013-09-02 13:43:00,79.6,71.0,29.79,West,267,3.5,3.5,75,0.00,CLR,SCT,0.00,WeatherDisplay:10.37,2013-09-02 17:43:00,
2013-09-02 13:45:00,79.6,71.0,29.79,WSW,246,4.6,4.6,75,0.00,CLR,SCT,0.00,WeatherDisplay:10.37,2013-09-02 17:45:00,
2013-09-02 13:46:00,79.6,71.0,29.79,WSW,256,5.0,5.0,75,0.00,CLR,SCT,0.00,WeatherDisplay:10.37,2013-09-02 17:46:00,
2013-09-02 13:47:00,79.6,71.0,29.79,West,264,5.8,5.8,75,0.00,CLR,SCT,0.00,WeatherDisplay:10.37,2013-09-02 17:47:00,
2013-09-02 13:52:00,79.6,71.0,29.79,West,260,5.0,5.0,75,0.00,CLR,SCT,0.00,WeatherDisplay:10.37,2013-09-02 17:52:00,
2013-09-02 13:53:00,79.6,70.6,29.79,WSW,254,5.8,5.8,74,0.00,CLR,SCT,0.00,WeatherDisplay:10.37,2013-09-02 17:53:00,
2013-09-02 13:55:00,79.6,71.0,29.79,WNW,296,2.3,2.3,75,0.00,CLR,SCT,0.00,WeatherDisplay:10.37,2013-09-02 17:55:00,
2013-09-02 13:57:00,79.4,70.4,29.80,WSW,244,9.2,9.2,74,0.00,CLR,SCT,0.00,WeatherDisplay:10.37,2013-09-02 17:57:00,
2013-09-02 13:59:00,79.4,70.4,29.80,West,261,4.6,4.6,74,0.00,CLR,SCT,0.00,WeatherDisplay:10.37,2013-09-02 17:59:00,
2013-09-02 14:01:00,79.2,70.2,29.80,WSW,257,5.8,5.8,74,0.00,CLR,SCT,0.00,WeatherDisplay:10.37,2013-09-02 18:01:00,
2013-09-02 14:03:00,79.2,70.6,29.80,West,261,4.6,0.0,75,0.00,CLR,SCT,0.00,WeatherDisplay:10.37,2013-09-02 18:03:00,
2013-09-02 14:04:00,79.2,70.6,29.80,West,261,0.0,0.3,75,0.00,CLR,SCT,0.00,WeatherDisplay:10.37,2013-09-02 18:04:00,
2013-09-02 14:08:00,79.2,70.2,29.80,WSW,250,6.0,6.0,74,0.00,,SCT,0.00,WeatherDisplay:10.37,2013-09-02 18:08:00,
2013-09-02 14:09:00,79.2,70.6,29.80,WSW,252,5.8,5.8,75,0.00,,SCT,0.00,WeatherDisplay:10.37,2013-09-02 18:09:00,
2013-09-02 14:11:00,79.2,70.6,29.80,WSW,255,5.8,5.8,75,0.00,,SCT,0.00,WeatherDisplay:10.37,2013-09-02 18:11:00,
2013-09-02 14:14:00,79.2,70.2,29.80,WSW,242,5.8,5.8,74,0.00,,SCT,0.00,WeatherDisplay:10.37,2013-09-02 18:14:00,
2013-09-02 14:16:00,79.2,70.6,29.80,WSW,256,9.2,9.2,75,0.00,,SCT,0.00,WeatherDisplay:10.37,2013-09-02 18:16:00,
2013-09-02 14:20:00,79.2,70.6,29.79,West,272,8.1,8.1,75,0.00,,SCT,0.00,WeatherDisplay:10.37,2013-09-02 18:20:00,
2013-09-02 14:21:00,79.4,70.8,29.79,West,263,6.9,6.9,75,0.00,,SCT,0.00,WeatherDisplay:10.37,2013-09-02 18:21:00,
2013-09-02 14:24:00,79.4,70.4,29.79,West,273,11.5,11.5,74,0.00,,SCT,0.00,WeatherDisplay:10.37,2013-09-02 18:24:00,
2013-09-02 14:26:00,79.4,70.4,29.79,West,269,8.1,8.1,74,0.00,,SCT,0.00,WeatherDisplay:10.37,2013-09-02 18:26:00,
2013-09-02 14:29:00,79.4,70.4,29.79,SW,221,6.9,6.9,74,0.00,,SCT,0.00,WeatherDisplay:10.37,2013-09-02 18:29:00,
2013-09-02 14:30:00,79.6,70.6,29.79,SW,234,9.2,9.2,74,0.00,,SCT,0.00,WeatherDisplay:10.37,2013-09-02 18:30:00,
2013-09-02 14:31:00,79.6,70.6,29.79,West,272,4.6,4.6,74,0.00,,SCT,0.00,WeatherDisplay:10.37,2013-09-02 18:31:00,
2013-09-02 14:32:00,79.6,70.6,29.78,West,260,4.6,4.6,74,0.00,,SCT,0.00,WeatherDisplay:10.37,2013-09-02 18:32:00,
2013-09-02 14:36:00,79.9,71.3,29.78,West,259,6.9,6.9,75,0.00,,SCT,0.00,WeatherDisplay:10.37,2013-09-02 18:36:00,
2013-09-02 14:37:00,79.9,71.3,29.78,WSW,254,5.0,5.0,75,0.00,,SCT,0.00,WeatherDisplay:10.37,2013-09-02 18:37:00,
2013-09-02 14:40:00,80.1,71.1,29.78,WSW,257,5.8,5.8,74,0.00,,SCT,0.00,WeatherDisplay:10.37,2013-09-02 18:40:00,
2013-09-02 14:41:00,80.3,71.3,29.78,WSW,237,4.6,4.6,74,0.00,,SCT,0.00,WeatherDisplay:10.37,2013-09-02 18:41:00,
2013-09-02 14:42:00,80.3,71.3,29.78,WSW,237,4.6,0.0,74,0.00,,SCT,0.00,WeatherDisplay:10.37,2013-09-02 18:42:00,
2013-09-02 14:43:00,80.3,71.3,29.78,WSW,237,0.0,0.0,74,0.00,,SCT,0.00,WeatherDisplay:10.37,2013-09-02 18:43:00,
2013-09-02 14:44:00,80.3,71.6,29.78,WSW,254,0.0,1.6,75,0.00,,SCT,0.00,WeatherDisplay:10.37,2013-09-02 18:44:00,
2013-09-02 14:49:00,80.5,71.0,29.78,SSW,213,5.8,5.8,73,0.00,,SCT,0.00,WeatherDisplay:10.37,2013-09-02 18:49:00,
2013-09-02 14:51:00,80.5,71.4,29.77,West,260,5.8,5.8,74,0.00,,SCT,0.00,WeatherDisplay:10.37,2013-09-02 18:51:00,
2013-09-02 14:52:00,80.5,71.0,29.78,West,262,4.6,4.6,73,0.00,,SCT,0.00,WeatherDisplay:10.37,2013-09-02 18:52:00,
2013-09-02 14:55:00,80.5,71.4,29.77,WSW,258,3.5,3.5,74,0.00,,SCT,0.00,WeatherDisplay:10.37,2013-09-02 18:55:00,
2013-09-02 14:56:00,80.5,71.4,29.77,WSW,258,4.6,4.6,74,0.00,,SCT,0.00,WeatherDisplay:10.37,2013-09-02 18:56:00,
2013-09-02 14:57:00,80.3,70.9,29.77,WSW,246,7.0,7.0,73,0.00,,SCT,0.00,WeatherDisplay:10.37,2013-09-02 18:57:00,
2013-09-02 14:58:00,80.3,70.9,29.77,West,264,11.5,11.5,73,0.00,,SCT,0.00,WeatherDisplay:10.37,2013-09-02 18:58:00,
2013-09-02 15:00:00,80.3,70.9,29.77,WSW,250,11.5,11.5,73,0.00,,SCT,0.00,WeatherDisplay:10.37,2013-09-02 19:00:00,
2013-09-02 15:01:00,80.1,70.7,29.77,WSW,242,11.0,11.0,73,0.00,,SCT,0.00,WeatherDisplay:10.37,2013-09-02 19:01:00,
2013-09-02 15:03:00,80.1,70.7,29.77,WSW,257,11.5,11.5,73,0.00,,SCT,0.00,WeatherDisplay:10.37,2013-09-02 19:03:00,
2013-09-02 15:05:00,80.3,70.9,29.77,WSW,254,6.0,6.8,73,0.00,,SCT,0.00,WeatherDisplay:10.37,2013-09-02 19:05:00,
2013-09-02 15:06:00,80.3,70.9,29.77,West,265,11.5,11.5,73,0.00,,SCT,0.00,WeatherDisplay:10.37,2013-09-02 19:06:00,
2013-09-02 15:09:00,80.3,70.4,29.77,SSW,204,11.5,11.5,72,0.00,,SCT,0.00,WeatherDisplay:10.37,2013-09-02 19:09:00,
2013-09-02 15:10:00,80.3,70.9,29.77,SW,234,11.5,11.5,73,0.00,,SCT,0.00,WeatherDisplay:10.37,2013-09-02 19:10:00,
2013-09-02 15:11:00,80.3,70.9,29.77,WSW,250,5.8,5.8,73,0.00,,SCT,0.00,WeatherDisplay:10.37,2013-09-02 19:11:00,
2013-09-02 15:14:00,80.1,70.7,29.77,SW,230,10.4,10.4,73,0.00,,SCT,0.00,WeatherDisplay:10.37,2013-09-02 19:14:00,
2013-09-02 15:16:00,80.1,70.7,29.77,SW,235,0.0,0.0,73,0.00,,SCT,0.00,WeatherDisplay:10.37,2013-09-02 19:16:00,
2013-09-02 15:17:00,80.1,70.7,29.77,WSW,250,3.0,3.0,73,0.00,,SCT,0.00,WeatherDisplay:10.37,2013-09-02 19:17:00,
2013-09-02 15:20:00,80.1,70.7,29.77,West,263,4.6,4.6,73,0.00,,SCT,0.00,WeatherDisplay:10.37,2013-09-02 19:20:00,
2013-09-02 15:21:00,80.3,71.3,29.77,SW,219,6.0,6.0,74,0.00,,SCT,0.00,WeatherDisplay:10.37,2013-09-02 19:21:00,
2013-09-02 15:24:00,80.3,70.9,29.76,West,262,8.1,8.1,73,0.00,,SCT,0.00,WeatherDisplay:10.37,2013-09-02 19:24:00,
2013-09-02 15:26:00,80.5,71.0,29.76,WSW,241,4.6,4.6,73,0.00,,SCT,0.00,WeatherDisplay:10.37,2013-09-02 19:26:00,
2013-09-02 15:27:00,80.5,71.0,29.76,West,261,9.2,9.2,73,0.00,,SCT,0.00,WeatherDisplay:10.37,2013-09-02 19:27:00,
2013-09-02 15:29:00,80.7,71.6,29.76,WSW,237,4.6,4.6,74,0.00,,SCT,0.00,WeatherDisplay:10.37,2013-09-02 19:29:00,
2013-09-02 15:30:00,80.9,71.8,29.76,WSW,250,5.8,5.8,74,0.00,,SCT,0.00,WeatherDisplay:10.37,2013-09-02 19:30:00,
2013-09-02 15:32:00,80.9,71.4,29.76,West,267,9.2,9.2,73,0.00,,SCT,0.00,WeatherDisplay:10.37,2013-09-02 19:32:00,
2013-09-02 15:34:00,81.1,71.2,29.76,WSW,258,9.2,9.2,72,0.00,,SCT,0.00,WeatherDisplay:10.37,2013-09-02 19:34:00,
2013-09-02 15:35:00,81.1,71.6,29.76,WNW,287,6.9,6.9,73,0.00,,SCT,0.00,WeatherDisplay:10.37,2013-09-02 19:35:00,
2013-09-02 15:37:00,81.1,71.6,29.76,WSW,241,5.0,5.0,73,0.00,,SCT,0.00,WeatherDisplay:10.37,2013-09-02 19:37:00,
2013-09-02 15:38:00,81.1,71.6,29.76,WSW,241,4.6,4.6,73,0.00,,SCT,0.00,WeatherDisplay:10.37,2013-09-02 19:38:00,
2013-09-02 15:41:00,81.1,71.2,29.76,WSW,256,6.9,6.9,72,0.00,,SCT,0.00,WeatherDisplay:10.37,2013-09-02 19:41:00,
2013-09-02 15:42:00,80.9,71.0,29.76,West,264,8.1,8.1,72,0.00,,SCT,0.00,WeatherDisplay:10.37,2013-09-02 19:42:00,
2013-09-02 15:43:00,80.9,71.0,29.76,West,262,4.6,4.6,72,0.00,,SCT,0.00,WeatherDisplay:10.37,2013-09-02 19:43:00,
2013-09-02 15:44:00,80.9,71.0,29.76,WSW,248,10.0,10.0,72,0.00,,SCT,0.00,WeatherDisplay:10.37,2013-09-02 19:44:00,
2013-09-02 15:45:00,80.7,70.8,29.76,WSW,251,10.4,10.4,72,0.00,,SCT,0.00,WeatherDisplay:10.37,2013-09-02 19:45:00,
2013-09-02 15:49:00,80.5,71.0,29.76,WSW,240,3.5,0.0,73,0.00,,SCT,0.00,WeatherDisplay:10.37,2013-09-02 19:49:00,
2013-09-02 15:50:00,80.3,70.9,29.76,WSW,243,3.0,3.0,73,0.00,,SCT,0.00,WeatherDisplay:10.37,2013-09-02 19:50:00,
2013-09-02 15:51:00,80.3,70.9,29.76,WSW,243,3.5,3.5,73,0.00,,SCT,0.00,WeatherDisplay:10.37,2013-09-02 19:51:00,
2013-09-02 15:54:00,80.3,70.9,29.75,WSW,243,0.0,0.0,73,0.00,,SCT,0.00,WeatherDisplay:10.37,2013-09-02 19:54:00,
2013-09-02 15:55:00,80.3,70.9,29.75,WSW,243,2.0,2.0,73,0.00,,SCT,0.00,WeatherDisplay:10.37,2013-09-02 19:55:00,
2013-09-02 15:56:00,80.3,70.9,29.75,WSW,245,5.8,5.8,73,0.00,,SCT,0.00,WeatherDisplay:10.37,2013-09-02 19:56:00,
2013-09-02 15:59:00,80.3,70.9,29.75,SW,215,5.8,5.8,73,0.00,,SCT,0.00,WeatherDisplay:10.37,2013-09-02 19:59:00,
2013-09-02 16:00:00,80.3,70.9,29.75,SSW,207,4.6,4.6,73,0.00,,SCT,0.00,WeatherDisplay:10.37,2013-09-02 20:00:00,
2013-09-02 16:02:00,80.3,70.9,29.75,SSE,167,5.8,5.8,73,0.00,,SCT,0.00,WeatherDisplay:10.37,2013-09-02 20:02:00,
2013-09-02 16:03:00,80.3,70.9,29.75,SSE,167,2.3,2.3,73,0.00,,SCT,0.00,WeatherDisplay:10.37,2013-09-02 20:03:00,
2013-09-02 16:04:00,80.3,70.9,29.75,SSE,167,0.0,0.0,73,0.00,,SCT,0.00,WeatherDisplay:10.37,2013-09-02 20:04:00,
2013-09-02 16:05:00,80.3,70.9,29.75,SSE,167,0.0,0.0,73,0.00,,SCT,0.00,WeatherDisplay:10.37,2013-09-02 20:05:00,
2013-09-02 16:06:00,80.5,71.0,29.75,SSE,167,0.0,0.0,73,0.00,,SCT,0.00,WeatherDisplay:10.37,2013-09-02 20:06:00,
2013-09-02 16:10:00,80.5,71.0,29.75,SW,227,3.5,3.5,73,0.00,,SCT,0.00,WeatherDisplay:10.37,2013-09-02 20:10:00,
2013-09-02 16:11:00,80.5,71.0,29.75,SW,235,3.5,3.5,73,0.00,,SCT,0.00,WeatherDisplay:10.37,2013-09-02 20:11:00,
2013-09-02 16:14:00,80.7,71.2,29.75,SW,235,0.0,0.0,73,0.00,,SCT,0.00,WeatherDisplay:10.37,2013-09-02 20:14:00,
2013-09-02 16:15:00,80.7,71.2,29.75,SW,235,0.0,0.0,73,0.00,,SCT,0.00,WeatherDisplay:10.37,2013-09-02 20:15:00,
2013-09-02 16:16:00,80.7,71.2,29.75,SW,236,1.1,1.1,73,0.00,,SCT,0.00,WeatherDisplay:10.37,2013-09-02 20:16:00,
2013-09-02 16:17:00,80.7,71.2,29.75,WSW,250,4.0,4.0,73,0.00,,SCT,0.00,WeatherDisplay:10.37,2013-09-02 20:17:00,
2013-09-02 16:18:00,80.7,71.2,29.75,WSW,250,3.5,3.5,73,0.00,,SCT,0.00,WeatherDisplay:10.37,2013-09-02 20:18:00,
2013-09-02 16:20:00,80.9,71.4,29.75,WSW,250,3.5,0.0,73,0.00,,SCT,0.00,WeatherDisplay:10.37,2013-09-02 20:20:00,
2013-09-02 16:22:00,80.9,71.4,29.74,WSW,250,3.5,3.5,73,0.00,,SCT,0.00,WeatherDisplay:10.37,2013-09-02 20:22:00,
2013-09-02 16:23:00,80.9,71.4,29.74,WSW,250,2.3,0.0,73,0.00,,SCT,0.00,WeatherDisplay:10.37,2013-09-02 20:23:00,
2013-09-02 16:27:00,80.9,71.4,29.74,WSW,250,0.0,0.0,73,0.00,,SCT,0.00,WeatherDisplay:10.37,2013-09-02 20:27:00,
2013-09-02 16:28:00,80.9,71.8,29.74,West,261,7.0,7.0,74,0.00,,SCT,0.00,WeatherDisplay:10.37,2013-09-02 20:28:00,
2013-09-02 16:29:00,81.1,71.6,29.74,WSW,246,3.5,4.4,73,0.00,,SCT,0.00,WeatherDisplay:10.37,2013-09-02 20:29:00,
2013-09-02 16:33:00,81.2,71.7,29.74,SW,221,4.6,4.6,73,0.00,,SCT,0.00,WeatherDisplay:10.37,2013-09-02 20:33:00,
2013-09-02 16:34:00,81.2,71.7,29.74,SW,225,5.8,0.0,73,0.00,,SCT,0.00,WeatherDisplay:10.37,2013-09-02 20:34:00,
2013-09-02 16:35:00,81.4,71.9,29.74,WSW,246,0.0,0.0,73,0.00,,SCT,0.00,WeatherDisplay:10.37,2013-09-02 20:35:00,
2013-09-02 16:36:00,81.4,71.9,29.74,WSW,246,0.0,0.0,73,0.00,,SCT,0.00,WeatherDisplay:10.37,2013-09-02 20:36:00,
2013-09-02 16:39:00,81.6,71.7,29.74,WSW,250,8.1,8.1,72,0.00,,SCT,0.00,WeatherDisplay:10.37,2013-09-02 20:39:00,
2013-09-02 16:43:00,82.0,72.1,29.74,WSW,243,6.9,6.9,72,0.00,,SCT,0.00,WeatherDisplay:10.37,2013-09-02 20:43:00,
2013-09-02 16:45:00,81.8,71.5,29.74,West,263,6.9,6.9,71,0.00,,SCT,0.00,WeatherDisplay:10.37,2013-09-02 20:45:00,
2013-09-02 16:46:00,81.8,71.9,29.74,West,263,0.0,0.0,72,0.00,,SCT,0.00,WeatherDisplay:10.37,2013-09-02 20:46:00,
2013-09-02 16:47:00,81.8,71.9,29.74,West,262,0.0,0.6,72,0.00,,SCT,0.00,WeatherDisplay:10.37,2013-09-02 20:47:00,
2013-09-02 16:50:00,81.6,71.7,29.74,WSW,242,3.5,0.0,72,0.00,,SCT,0.00,WeatherDisplay:10.37,2013-09-02 20:50:00,
2013-09-02 16:51:00,81.6,71.7,29.74,WSW,242,0.0,0.0,72,0.00,,SCT,0.00,WeatherDisplay:10.37,2013-09-02 20:51:00,
2013-09-02 16:52:00,81.4,71.5,29.74,WSW,242,3.5,3.5,72,0.00,,SCT,0.00,WeatherDisplay:10.37,2013-09-02 20:52:00,
2013-09-02 16:54:00,81.2,71.3,29.74,WSW,249,3.5,3.5,72,0.00,,SCT,0.00,WeatherDisplay:10.37,2013-09-02 20:54:00,
2013-09-02 16:56:00,81.2,71.3,29.74,West,264,3.5,3.5,72,0.00,,SCT,0.00,WeatherDisplay:10.37,2013-09-02 20:56:00,
2013-09-02 16:58:00,81.1,71.2,29.74,WSW,247,5.8,5.8,72,0.00,,SCT,0.00,WeatherDisplay:10.37,2013-09-02 20:58:00,
2013-09-02 17:00:00,81.1,71.2,29.74,West,260,5.0,5.0,72,0.00,,SCT,0.00,WeatherDisplay:10.37,2013-09-02 21:00:00,
2013-09-02 17:01:00,80.9,71.0,29.74,West,260,5.8,5.8,72,0.00,,SCT,0.00,WeatherDisplay:10.37,2013-09-02 21:01:00,
2013-09-02 17:05:00,80.9,71.0,29.74,WSW,254,3.0,3.0,72,0.00,,SCT,0.00,WeatherDisplay:10.37,2013-09-02 21:05:00,
2013-09-02 17:07:00,80.9,71.0,29.73,WSW,254,3.5,3.5,72,0.00,,SCT,0.00,WeatherDisplay:10.37,2013-09-02 21:07:00,
2013-09-02 17:09:00,80.7,71.2,29.73,WSW,254,0.0,0.0,73,0.00,,SCT,0.00,WeatherDisplay:10.37,2013-09-02 21:09:00,
2013-09-02 17:11:00,80.7,71.2,29.73,WSW,254,0.0,0.0,73,0.00,,SCT,0.00,WeatherDisplay:10.37,2013-09-02 21:11:00,
2013-09-02 17:12:00,80.7,71.2,29.73,WSW,254,0.0,0.0,73,0.00,,SCT,0.00,WeatherDisplay:10.37,2013-09-02 21:12:00,
2013-09-02 17:14:00,80.7,71.2,29.73,WSW,254,0.0,0.0,73,0.00,,SCT,0.00,WeatherDisplay:10.37,2013-09-02 21:14:00,
2013-09-02 17:15:00,80.7,71.2,29.73,WSW,254,0.0,0.0,73,0.00,,SCT,0.00,WeatherDisplay:10.37,2013-09-02 21:15:00,
2013-09-02 17:17:00,80.7,70.8,29.73,WSW,254,2.3,2.3,72,0.00,,SCT,0.00,WeatherDisplay:10.37,2013-09-02 21:17:00,
2013-09-02 17:19:00,80.5,70.6,29.73,WSW,254,0.0,0.0,72,0.00,,SCT,0.00,WeatherDisplay:10.37,2013-09-02 21:19:00,
2013-09-02 17:22:00,80.3,70.4,29.73,WSW,254,0.0,0.0,72,0.00,,SCT,0.00,WeatherDisplay:10.37,2013-09-02 21:22:00,
2013-09-02 17:23:00,80.3,70.9,29.73,WSW,254,0.0,0.0,73,0.00,,SCT,0.00,WeatherDisplay:10.37,2013-09-02 21:23:00,
2013-09-02 17:24:00,80.3,70.9,29.73,WSW,254,0.0,0.0,73,0.00,,SCT,0.00,WeatherDisplay:10.37,2013-09-02 21:24:00,
2013-09-02 17:28:00,80.1,70.7,29.73,WSW,254,0.0,0.0,73,0.00,,SCT,0.00,WeatherDisplay:10.37,2013-09-02 21:28:00,
2013-09-02 17:29:00,80.1,70.7,29.73,WSW,254,0.0,0.0,73,0.00,,SCT,0.00,WeatherDisplay:10.37,2013-09-02 21:29:00,
2013-09-02 17:30:00,80.1,70.7,29.73,WSW,254,0.0,0.0,73,0.00,,SCT,0.00,WeatherDisplay:10.37,2013-09-02 21:30:00,
2013-09-02 17:34:00,80.1,70.7,29.72,WSW,254,0.0,0.0,73,0.00,,SCT,0.00,WeatherDisplay:10.37,2013-09-02 21:34:00,
2013-09-02 17:37:00,80.1,70.7,29.72,WSW,254,0.0,0.0,73,0.00,,SCT,0.00,WeatherDisplay:10.37,2013-09-02 21:37:00,
2013-09-02 17:38:00,80.1,70.7,29.72,WSW,254,0.0,0.0,73,0.00,,SCT,0.00,WeatherDisplay:10.37,2013-09-02 21:38:00,
2013-09-02 17:40:00,80.1,70.7,29.72,SW,231,1.0,1.0,73,0.00,,SCT,0.00,WeatherDisplay:10.37,2013-09-02 21:40:00,
2013-09-02 17:42:00,80.1,70.7,29.72,SW,231,0.0,0.0,73,0.00,,SCT,0.00,WeatherDisplay:10.37,2013-09-02 21:42:00,
2013-09-02 17:45:00,80.1,70.7,29.73,SW,231,0.0,0.0,73,0.00,,SCT,0.00,WeatherDisplay:10.37,2013-09-02 21:45:00,
2013-09-02 17:46:00,80.1,70.7,29.73,SW,231,0.0,0.0,73,0.00,,SCT,0.00,WeatherDisplay:10.37,2013-09-02 21:46:00,
2013-09-02 17:47:00,80.1,70.7,29.73,SW,231,0.0,0.0,73,0.00,,SCT,0.00,WeatherDisplay:10.37,2013-09-02 21:47:00,
2013-09-02 17:48:00,80.1,70.7,29.73,SW,231,0.0,0.0,73,0.00,,SCT,0.00,WeatherDisplay:10.37,2013-09-02 21:48:00,
2013-09-02 17:50:00,80.1,70.7,29.73,WSW,257,6.0,6.0,73,0.00,,SCT,0.00,WeatherDisplay:10.37,2013-09-02 21:50:00,
2013-09-02 17:52:00,80.3,70.9,29.73,WSW,250,3.5,3.5,73,0.00,,SCT,0.00,WeatherDisplay:10.37,2013-09-02 21:52:00,
2013-09-02 17:53:00,80.3,70.9,29.73,WSW,250,5.0,5.0,73,0.00,,SCT,0.00,WeatherDisplay:10.37,2013-09-02 21:53:00,
2013-09-02 17:54:00,80.3,70.9,29.73,WSW,250,4.6,4.6,73,0.00,,SCT,0.00,WeatherDisplay:10.37,2013-09-02 21:54:00,
2013-09-02 17:56:00,80.3,70.9,29.73,WSW,249,1.0,1.0,73,0.00,,SCT,0.00,WeatherDisplay:10.37,2013-09-02 21:56:00,
2013-09-02 17:58:00,80.3,70.9,29.73,WSW,249,3.5,3.5,73,0.00,,SCT,0.00,WeatherDisplay:10.37,2013-09-02 21:58:00,
2013-09-02 18:01:00,80.3,70.9,29.73,WSW,249,0.0,0.0,73,0.00,,SCT,0.00,WeatherDisplay:10.37,2013-09-02 22:01:00,
2013-09-02 18:03:00,80.3,70.9,29.73,WSW,249,0.0,0.0,73,0.00,,SCT,0.00,WeatherDisplay:10.37,2013-09-02 22:03:00,
2013-09-02 18:04:00,80.3,70.9,29.73,WSW,250,0.0,1.0,73,0.00,,SCT,0.00,WeatherDisplay:10.37,2013-09-02 22:04:00,
2013-09-02 18:07:00,80.3,70.9,29.73,WSW,250,0.0,0.0,73,0.00,,SCT,0.00,WeatherDisplay:10.37,2013-09-02 22:07:00,
2013-09-02 18:08:00,80.3,70.9,29.73,WSW,250,0.0,0.0,73,0.00,,SCT,0.00,WeatherDisplay:10.37,2013-09-02 22:08:00,
2013-09-02 18:09:00,80.3,70.9,29.73,WSW,252,3.5,3.5,73,0.00,,SCT,0.00,WeatherDisplay:10.37,2013-09-02 22:09:00,
2013-09-02 18:11:00,80.3,70.9,29.73,WSW,244,3.5,3.5,73,0.00,,SCT,0.00,WeatherDisplay:10.37,2013-09-02 22:11:00,
2013-09-02 18:14:00,80.3,70.9,29.73,WSW,244,3.5,3.5,73,0.00,,SCT,0.00,WeatherDisplay:10.37,2013-09-02 22:14:00,
2013-09-02 18:15:00,80.3,70.9,29.73,WSW,245,3.5,0.0,73,0.00,,SCT,0.00,WeatherDisplay:10.37,2013-09-02 22:15:00,
2013-09-02 18:16:00,80.3,70.9,29.73,WSW,248,1.0,0.0,73,0.00,,SCT,0.00,WeatherDisplay:10.37,2013-09-02 22:16:00,
2013-09-02 18:20:00,80.3,70.9,29.73,WSW,250,3.5,3.5,73,0.00,,SCT,0.00,WeatherDisplay:10.37,2013-09-02 22:20:00,
2013-09-02 18:21:00,80.1,70.7,29.73,WSW,250,1.1,0.0,73,0.00,,SCT,0.00,WeatherDisplay:10.37,2013-09-02 22:21:00,
2013-09-02 18:22:00,80.1,70.7,29.73,WSW,250,2.3,2.3,73,0.00,,SCT,0.00,WeatherDisplay:10.37,2013-09-02 22:22:00,
2013-09-02 18:25:00,80.1,70.7,29.73,WSW,250,0.0,0.0,73,0.00,,SCT,0.00,WeatherDisplay:10.37,2013-09-02 22:25:00,
2013-09-02 18:28:00,80.1,70.7,29.73,WSW,250,0.0,0.0,73,0.00,,SCT,0.00,WeatherDisplay:10.37,2013-09-02 22:28:00,
2013-09-02 18:30:00,79.9,70.5,29.73,WSW,252,3.5,3.5,73,0.00,,SCT,0.00,WeatherDisplay:10.37,2013-09-02 22:30:00,
2013-09-02 18:33:00,79.8,70.4,29.73,WSW,252,0.0,0.0,73,0.00,,SCT,0.00,WeatherDisplay:10.37,2013-09-02 22:33:00,
2013-09-02 18:34:00,79.8,70.4,29.73,WSW,252,0.0,0.0,73,0.00,,SCT,0.00,WeatherDisplay:10.37,2013-09-02 22:34:00,
2013-09-02 18:35:00,79.8,70.4,29.73,WSW,252,0.0,0.0,73,0.00,,SCT,0.00,WeatherDisplay:10.37,2013-09-02 22:35:00,
2013-09-02 18:39:00,79.6,70.6,29.73,WSW,252,0.0,0.0,74,0.00,,SCT,0.00,WeatherDisplay:10.37,2013-09-02 22:39:00,
2013-09-02 18:40:00,79.6,70.6,29.73,WSW,252,0.0,0.0,74,0.00,,SCT,0.00,WeatherDisplay:10.37,2013-09-02 22:40:00,
2013-09-02 18:41:00,79.6,70.6,29.73,WSW,252,0.0,0.0,74,0.00,,SCT,0.00,WeatherDisplay:10.37,2013-09-02 22:41:00,
2013-09-02 18:42:00,79.6,70.6,29.73,WSW,252,0.0,0.0,74,0.00,,SCT,0.00,WeatherDisplay:10.37,2013-09-02 22:42:00,
2013-09-02 18:43:00,79.6,70.6,29.73,WSW,252,0.0,0.0,74,0.00,,SCT,0.00,WeatherDisplay:10.37,2013-09-02 22:43:00,
2013-09-02 18:45:00,79.4,70.4,29.73,WSW,252,0.0,0.0,74,0.00,,SCT,0.00,WeatherDisplay:10.37,2013-09-02 22:45:00,
2013-09-02 18:48:00,79.4,70.4,29.73,WSW,252,0.0,0.0,74,0.00,,SCT,0.00,WeatherDisplay:10.37,2013-09-02 22:48:00,
2013-09-02 18:50:00,79.4,70.4,29.73,WSW,252,0.0,0.2,74,0.00,,SCT,0.00,WeatherDisplay:10.37,2013-09-02 22:50:00,
2013-09-02 18:51:00,79.6,70.6,29.73,WSW,252,1.1,1.1,74,0.00,,SCT,0.00,WeatherDisplay:10.37,2013-09-02 22:51:00,
2013-09-02 18:53:00,79.6,70.6,29.73,WSW,252,0.0,0.0,74,0.00,,SCT,0.00,WeatherDisplay:10.37,2013-09-02 22:53:00,
2013-09-02 18:55:00,79.6,70.6,29.73,WSW,252,0.0,0.0,74,0.00,,SCT,0.00,WeatherDisplay:10.37,2013-09-02 22:55:00,
2013-09-02 18:56:00,79.6,70.6,29.73,WSW,252,0.0,0.0,74,0.00,,SCT,0.00,WeatherDisplay:10.37,2013-09-02 22:56:00,
2013-09-02 19:00:00,79.6,70.6,29.73,WSW,252,0.0,0.0,74,0.00,,SCT,0.00,WeatherDisplay:10.37,2013-09-02 23:00:00,
2013-09-02 19:01:00,79.6,70.6,29.73,WSW,252,0.0,0.0,74,0.00,,SCT,0.00,WeatherDisplay:10.37,2013-09-02 23:01:00,
2013-09-02 19:02:00,79.6,70.6,29.73,WSW,252,0.0,0.5,74,0.00,,SCT,0.00,WeatherDisplay:10.37,2013-09-02 23:02:00,
2013-09-02 19:04:00,79.6,70.6,29.73,WSW,251,1.1,1.1,74,0.00,,SCT,0.00,WeatherDisplay:10.37,2013-09-02 23:04:00,
2013-09-02 19:08:00,79.4,70.4,29.72,WSW,252,0.0,0.0,74,0.00,,SCT,0.00,WeatherDisplay:10.37,2013-09-02 23:08:00,
2013-09-02 19:09:00,79.4,70.4,29.72,WSW,252,0.0,0.0,74,0.00,,SCT,0.00,WeatherDisplay:10.37,2013-09-02 23:09:00,
2013-09-02 19:10:00,79.4,70.4,29.72,WSW,252,0.0,0.0,74,0.00,,SCT,0.00,WeatherDisplay:10.37,2013-09-02 23:10:00,
2013-09-02 19:15:00,79.0,70.0,29.72,SW,229,0.0,0.0,74,0.00,,SCT,0.00,WeatherDisplay:10.37,2013-09-02 23:15:00,
2013-09-02 19:16:00,79.0,70.0,29.72,SW,229,0.0,0.0,74,0.00,,SCT,0.00,WeatherDisplay:10.37,2013-09-02 23:16:00,
2013-09-02 19:20:00,78.8,69.8,29.73,SW,229,0.0,0.0,74,0.00,,SCT,0.00,WeatherDisplay:10.37,2013-09-02 23:20:00,
2013-09-02 19:21:00,78.6,70.0,29.73,SW,229,0.0,0.0,75,0.00,,SCT,0.00,WeatherDisplay:10.37,2013-09-02 23:21:00,
2013-09-02 19:22:00,78.6,70.0,29.73,SW,229,0.0,0.0,75,0.00,,SCT,0.00,WeatherDisplay:10.37,2013-09-02 23:22:00,
2013-09-02 19:26:00,78.5,69.9,29.73,SW,229,0.0,0.0,75,0.00,,SCT,0.00,WeatherDisplay:10.37,2013-09-02 23:26:00,
2013-09-02 19:27:00,78.5,69.9,29.73,SW,229,0.0,0.0,75,0.00,,SCT,0.00,WeatherDisplay:10.37,2013-09-02 23:27:00,
2013-09-02 19:28:00,78.3,69.7,29.73,SW,229,0.0,0.0,75,0.00,,SCT,0.00,WeatherDisplay:10.37,2013-09-02 23:28:00,
2013-09-02 19:29:00,78.3,69.7,29.73,SW,229,0.0,0.0,75,0.00,,SCT,0.00,WeatherDisplay:10.37,2013-09-02 23:29:00,
2013-09-02 19:30:00,78.3,69.7,29.73,SW,229,0.0,0.0,75,0.00,,SCT,0.00,WeatherDisplay:10.37,2013-09-02 23:30:00,
2013-09-02 19:33:00,78.1,69.5,29.73,SW,229,0.0,0.0,75,0.00,,SCT,0.00,WeatherDisplay:10.37,2013-09-02 23:33:00,
2013-09-02 19:34:00,78.1,69.5,29.73,SW,229,0.0,0.0,75,0.00,,SCT,0.00,WeatherDisplay:10.37,2013-09-02 23:34:00,
2013-09-02 19:37:00,78.1,69.5,29.73,SW,229,0.0,0.0,75,0.00,,SCT,0.00,WeatherDisplay:10.37,2013-09-02 23:37:00,
2013-09-02 19:38:00,77.9,69.3,29.73,SW,229,0.0,0.0,75,0.00,,SCT,0.00,WeatherDisplay:10.37,2013-09-02 23:38:00,
2013-09-02 19:39:00,77.9,69.3,29.73,SW,229,0.0,0.0,75,0.00,,SCT,0.00,WeatherDisplay:10.37,2013-09-02 23:39:00,
2013-09-02 19:40:00,77.9,69.3,29.73,SW,229,0.0,0.0,75,0.00,,SCT,0.00,WeatherDisplay:10.37,2013-09-02 23:40:00,
2013-09-02 19:41:00,77.9,69.7,29.73,SW,229,0.0,0.0,76,0.00,,SCT,0.00,WeatherDisplay:10.37,2013-09-02 23:41:00,
2013-09-02 19:44:00,77.7,69.5,29.73,SW,229,0.0,0.0,76,0.00,,SCT,0.00,WeatherDisplay:10.37,2013-09-02 23:44:00,
2013-09-02 19:45:00,77.7,69.5,29.73,SW,229,0.0,0.0,76,0.00,,SCT,0.00,WeatherDisplay:10.37,2013-09-02 23:45:00,
2013-09-02 19:46:00,77.6,69.4,29.73,SW,229,0.0,0.0,76,0.00,,SCT,0.00,WeatherDisplay:10.37,2013-09-02 23:46:00,
2013-09-02 19:49:00,77.6,69.4,29.73,SW,229,0.0,0.0,76,0.00,,SCT,0.00,WeatherDisplay:10.37,2013-09-02 23:49:00,
2013-09-02 19:50:00,77.4,69.2,29.73,SW,229,0.0,0.0,76,0.00,,SCT,0.00,WeatherDisplay:10.37,2013-09-02 23:50:00,
2013-09-02 19:51:00,77.4,69.2,29.73,SW,229,0.0,0.0,76,0.00,,SCT,0.00,WeatherDisplay:10.37,2013-09-02 23:51:00,
2013-09-02 19:53:00,77.4,69.2,29.73,SW,229,0.0,0.0,76,0.00,,SCT,0.00,WeatherDisplay:10.37,2013-09-02 23:53:00,
2013-09-02 19:54:00,77.4,69.2,29.73,SW,229,0.0,0.0,76,0.00,,SCT,0.00,WeatherDisplay:10.37,2013-09-02 23:54:00,
2013-09-02 19:57:00,77.2,69.0,29.73,SW,229,0.0,0.0,76,0.00,,SCT,0.00,WeatherDisplay:10.37,2013-09-02 23:57:00,
2013-09-02 19:59:00,77.0,68.9,29.73,SW,229,0.0,0.0,76,0.00,,SCT,0.00,WeatherDisplay:10.37,2013-09-02 23:59:00,
2013-09-02 20:00:00,77.0,68.9,29.73,SW,229,0.0,0.0,76,0.00,,SCT,0.00,WeatherDisplay:10.37,2013-09-03 00:00:00,
2013-09-02 20:02:00,77.0,68.9,29.73,SW,229,0.0,0.0,76,0.00,,SCT,0.00,WeatherDisplay:10.37,2013-09-03 00:02:00,
2013-09-02 20:03:00,76.8,68.7,29.73,SW,229,0.0,0.0,76,0.00,,SCT,0.00,WeatherDisplay:10.37,2013-09-03 00:03:00,
2013-09-02 20:06:00,76.8,68.7,29.73,SW,229,0.0,0.0,76,0.00,,SCT,0.00,WeatherDisplay:10.37,2013-09-03 00:06:00,
2013-09-02 20:07:00,76.7,68.6,29.73,SW,229,0.0,0.0,76,0.00,,SCT,0.00,WeatherDisplay:10.37,2013-09-03 00:07:00,
2013-09-02 20:09:00,76.7,68.6,29.73,SW,229,0.0,0.0,76,0.00,,SCT,0.00,WeatherDisplay:10.37,2013-09-03 00:09:00,
2013-09-02 20:10:00,76.5,68.4,29.73,SW,229,0.0,0.0,76,0.00,,SCT,0.00,WeatherDisplay:10.37,2013-09-03 00:10:00,
2013-09-02 20:13:00,76.5,68.4,29.73,SW,229,0.0,0.0,76,0.00,,SCT,0.00,WeatherDisplay:10.37,2013-09-03 00:13:00,
2013-09-02 20:14:00,76.3,68.2,29.73,SW,229,0.0,0.0,76,0.00,,SCT,0.00,WeatherDisplay:10.37,2013-09-03 00:14:00,
2013-09-02 20:15:00,76.3,68.2,29.74,SW,229,0.0,0.0,76,0.00,,SCT,0.00,WeatherDisplay:10.37,2013-09-03 00:15:00,
2013-09-02 20:17:00,76.3,68.2,29.74,SW,229,0.0,0.0,76,0.00,,SCT,0.00,WeatherDisplay:10.37,2013-09-03 00:17:00,
2013-09-02 20:19:00,76.1,68.4,29.74,SW,229,0.0,0.0,77,0.00,,SCT,0.00,WeatherDisplay:10.37,2013-09-03 00:19:00,
2013-09-02 20:21:00,76.0,68.3,29.74,SW,229,0.0,0.0,77,0.00,,SCT,0.00,WeatherDisplay:10.37,2013-09-03 00:21:00,
2013-09-02 20:22:00,76.0,68.3,29.74,SW,229,0.0,0.0,77,0.00,,SCT,0.00,WeatherDisplay:10.37,2013-09-03 00:22:00,
2013-09-02 20:23:00,76.0,68.3,29.74,SW,229,0.0,0.0,77,0.00,,SCT,0.00,WeatherDisplay:10.37,2013-09-03 00:23:00,
2013-09-02 20:25:00,75.8,68.1,29.74,SW,229,0.0,0.0,77,0.00,,SCT,0.00,WeatherDisplay:10.37,2013-09-03 00:25:00,
2013-09-02 20:27:00,75.8,68.1,29.74,SW,229,0.0,0.0,77,0.00,,SCT,0.00,WeatherDisplay:10.37,2013-09-03 00:27:00,
2013-09-02 20:28:00,75.6,67.9,29.75,SW,229,0.0,0.0,77,0.00,,SCT,0.00,WeatherDisplay:10.37,2013-09-03 00:28:00,
2013-09-02 20:30:00,75.6,67.9,29.75,SW,229,0.0,0.0,77,0.00,,SCT,0.00,WeatherDisplay:10.37,2013-09-03 00:30:00,
2013-09-02 20:32:00,75.4,67.7,29.75,SW,229,0.0,0.0,77,0.00,,SCT,0.00,WeatherDisplay:10.37,2013-09-03 00:32:00,
2013-09-02 20:34:00,75.3,67.6,29.75,SW,229,0.0,0.0,77,0.00,,SCT,0.00,WeatherDisplay:10.37,2013-09-03 00:34:00,
2013-09-02 20:36:00,75.1,67.4,29.75,SW,229,0.0,0.0,77,0.00,,SCT,0.00,WeatherDisplay:10.37,2013-09-03 00:36:00,
2013-09-02 20:37:00,75.1,67.4,29.75,SW,229,0.0,0.0,77,0.00,,SCT,0.00,WeatherDisplay:10.37,2013-09-03 00:37:00,
2013-09-02 20:38:00,75.1,67.4,29.75,SW,229,0.0,0.0,77,0.00,,SCT,0.00,WeatherDisplay:10.37,2013-09-03 00:38:00,
2013-09-02 20:39:00,74.9,67.6,29.75,SW,229,0.0,0.0,78,0.00,,SCT,0.00,WeatherDisplay:10.37,2013-09-03 00:39:00,
2013-09-02 20:43:00,74.7,67.0,29.75,SW,229,0.0,0.0,77,0.00,,SCT,0.00,WeatherDisplay:10.37,2013-09-03 00:43:00,
2013-09-02 20:44:00,74.6,66.9,29.75,SW,229,0.0,0.0,77,0.00,,SCT,0.00,WeatherDisplay:10.37,2013-09-03 00:44:00,
2013-09-02 20:47:00,74.4,67.1,29.75,SW,229,0.0,0.0,78,0.00,,SCT,0.00,WeatherDisplay:10.37,2013-09-03 00:47:00,
2013-09-02 20:48:00,74.4,67.1,29.75,SW,229,0.0,0.0,78,0.00,,SCT,0.00,WeatherDisplay:10.37,2013-09-03 00:48:00,
2013-09-02 20:49:00,74.4,67.1,29.75,SW,229,0.0,0.0,78,0.00,,SCT,0.00,WeatherDisplay:10.37,2013-09-03 00:49:00,
2013-09-02 20:51:00,74.2,66.9,29.75,SW,229,0.0,0.0,78,0.00,,SCT,0.00,WeatherDisplay:10.37,2013-09-03 00:51:00,
2013-09-02 20:52:00,74.2,66.9,29.75,SW,229,0.0,0.0,78,0.00,,SCT,0.00,WeatherDisplay:10.37,2013-09-03 00:52:00,
2013-09-02 20:53:00,74.0,66.7,29.75,SW,229,0.0,0.0,78,0.00,,SCT,0.00,WeatherDisplay:10.37,2013-09-03 00:53:00,
2013-09-02 20:55:00,74.0,66.7,29.75,SW,229,0.0,0.0,78,0.00,,SCT,0.00,WeatherDisplay:10.37,2013-09-03 00:55:00,
2013-09-02 20:57:00,73.9,66.6,29.76,SW,229,0.0,0.0,78,0.00,,SCT,0.00,WeatherDisplay:10.37,2013-09-03 00:57:00,
2013-09-02 20:59:00,73.9,67.0,29.76,SW,229,0.0,0.0,79,0.00,,SCT,0.00,WeatherDisplay:10.37,2013-09-03 00:59:00,
2013-09-02 21:00:00,73.9,67.0,29.76,SW,229,0.0,0.0,79,0.00,,SCT,0.00,WeatherDisplay:10.37,2013-09-03 01:00:00,
2013-09-02 21:01:00,73.9,67.0,29.76,SW,229,0.0,0.0,79,0.00,,SCT,0.00,WeatherDisplay:10.37,2013-09-03 01:01:00,
2013-09-02 21:02:00,73.7,66.8,29.76,SW,229,0.0,0.0,79,0.00,,SCT,0.00,WeatherDisplay:10.37,2013-09-03 01:02:00,
2013-09-02 21:07:00,73.5,66.6,29.76,SW,229,0.0,0.0,79,0.00,,SCT,0.00,WeatherDisplay:10.37,2013-09-03 01:07:00,
2013-09-02 21:08:00,73.5,66.9,29.76,SW,229,0.0,0.0,80,0.00,,SCT,0.00,WeatherDisplay:10.37,2013-09-03 01:08:00,
2013-09-02 21:09:00,73.3,66.8,29.76,SW,229,0.0,0.0,80,0.00,,SCT,0.00,WeatherDisplay:10.37,2013-09-03 01:09:00,
2013-09-02 21:10:00,73.3,66.8,29.76,SW,229,0.0,0.0,80,0.00,,SCT,0.00,WeatherDisplay:10.37,2013-09-03 01:10:00,
2013-09-02 21:14:00,73.2,66.7,29.76,SW,229,0.0,0.0,80,0.00,,SCT,0.00,WeatherDisplay:10.37,2013-09-03 01:14:00,
2013-09-02 21:15:00,73.2,66.7,29.76,SW,229,0.0,0.0,80,0.00,,SCT,0.00,WeatherDisplay:10.37,2013-09-03 01:15:00,
2013-09-02 21:16:00,73.0,66.5,29.77,SW,229,0.0,0.0,80,0.00,,SCT,0.00,WeatherDisplay:10.37,2013-09-03 01:16:00,
2013-09-02 21:17:00,73.0,66.5,29.77,SW,229,0.0,0.0,80,0.00,,SCT,0.00,WeatherDisplay:10.37,2013-09-03 01:17:00,
2013-09-02 21:19:00,73.0,66.5,29.77,SW,229,0.0,0.0,80,0.00,,SCT,0.00,WeatherDisplay:10.37,2013-09-03 01:19:00,
2013-09-02 21:21:00,72.8,66.3,29.76,SW,229,0.0,0.0,80,0.00,,SCT,0.00,WeatherDisplay:10.37,2013-09-03 01:21:00,
2013-09-02 21:22:00,72.8,66.3,29.76,SW,229,0.0,0.0,80,0.00,,SCT,0.00,WeatherDisplay:10.37,2013-09-03 01:22:00,
2013-09-02 21:24:00,72.8,66.3,29.76,SW,229,0.0,0.0,80,0.00,,SCT,0.00,WeatherDisplay:10.37,2013-09-03 01:24:00,
2013-09-02 21:25:00,72.7,66.2,29.76,SW,229,0.0,0.0,80,0.00,,SCT,0.00,WeatherDisplay:10.37,2013-09-03 01:25:00,
2013-09-02 21:29:00,72.7,66.2,29.76,SW,229,0.0,0.0,80,0.00,,SCT,0.00,WeatherDisplay:10.37,2013-09-03 01:29:00,
2013-09-02 21:30:00,72.7,66.2,29.76,SW,229,0.0,0.0,80,0.00,,SCT,0.00,WeatherDisplay:10.37,2013-09-03 01:30:00,
2013-09-02 21:32:00,72.7,66.2,29.76,SW,229,0.0,0.0,80,0.00,,SCT,0.00,WeatherDisplay:10.37,2013-09-03 01:32:00,
2013-09-02 21:33:00,72.5,66.0,29.76,SW,229,0.0,0.0,80,0.00,,SCT,0.00,WeatherDisplay:10.37,2013-09-03 01:33:00,
2013-09-02 21:34:00,72.5,66.0,29.76,SW,229,0.0,0.0,80,0.00,,SCT,0.00,WeatherDisplay:10.37,2013-09-03 01:34:00,
2013-09-02 21:35:00,72.5,66.3,29.76,SW,229,0.0,0.0,81,0.00,,SCT,0.00,WeatherDisplay:10.37,2013-09-03 01:35:00,
2013-09-02 21:38:00,72.5,66.3,29.76,SW,229,0.0,0.0,81,0.00,,SCT,0.00,WeatherDisplay:10.37,2013-09-03 01:38:00,
2013-09-02 21:39:00,72.5,66.3,29.76,SW,229,0.0,0.0,81,0.00,,SCT,0.00,WeatherDisplay:10.37,2013-09-03 01:39:00,
2013-09-02 21:40:00,72.5,66.3,29.76,SW,229,0.0,0.0,81,0.00,,SCT,0.00,WeatherDisplay:10.37,2013-09-03 01:40:00,
2013-09-02 21:43:00,72.5,66.3,29.76,SW,229,0.0,0.0,81,0.00,,SCT,0.00,WeatherDisplay:10.37,2013-09-03 01:43:00,
2013-09-02 21:44:00,72.5,66.3,29.76,SW,229,0.0,0.0,81,0.00,,SCT,0.00,WeatherDisplay:10.37,2013-09-03 01:44:00,
2013-09-02 21:46:00,72.5,66.3,29.76,SW,229,0.0,0.0,81,0.00,,SCT,0.00,WeatherDisplay:10.37,2013-09-03 01:46:00,
2013-09-02 21:47:00,72.5,66.7,29.76,SW,229,0.0,0.0,82,0.00,,SCT,0.00,WeatherDisplay:10.37,2013-09-03 01:47:00,
2013-09-02 21:49:00,72.5,66.7,29.75,SW,229,0.0,0.0,82,0.00,,SCT,0.00,WeatherDisplay:10.37,2013-09-03 01:49:00,
2013-09-02 21:51:00,72.5,66.7,29.75,SW,229,0.0,0.0,82,0.00,,SCT,0.00,WeatherDisplay:10.37,2013-09-03 01:51:00,
2013-09-02 21:52:00,72.5,66.7,29.75,SW,229,0.0,0.0,82,0.00,,SCT,0.00,WeatherDisplay:10.37,2013-09-03 01:52:00,
2013-09-02 21:53:00,72.5,66.7,29.75,SW,229,0.0,0.0,82,0.00,,SCT,0.00,WeatherDisplay:10.37,2013-09-03 01:53:00,
2013-09-02 21:54:00,72.5,66.7,29.75,SW,229,0.0,0.0,82,0.00,,SCT,0.00,WeatherDisplay:10.37,2013-09-03 01:54:00,
2013-09-02 21:55:00,72.5,66.7,29.75,SW,229,0.0,0.0,82,0.00,,SCT,0.00,WeatherDisplay:10.37,2013-09-03 01:55:00,
2013-09-02 21:56:00,72.5,66.7,29.75,SW,229,0.0,0.0,82,0.00,,SCT,0.00,WeatherDisplay:10.37,2013-09-03 01:56:00,
2013-09-02 21:58:00,72.3,66.5,29.75,SW,229,0.0,0.0,82,0.00,,SCT,0.00,WeatherDisplay:10.37,2013-09-03 01:58:00,
2013-09-02 22:00:00,72.3,66.5,29.75,SW,229,0.0,0.0,82,0.00,,SCT,0.00,WeatherDisplay:10.37,2013-09-03 02:00:00,
2013-09-02 22:03:00,72.3,66.5,29.75,SW,229,0.0,0.0,82,0.00,,SCT,0.00,WeatherDisplay:10.37,2013-09-03 02:03:00,
2013-09-02 22:04:00,72.3,66.5,29.75,SW,229,0.0,0.0,82,0.00,,SCT,0.00,WeatherDisplay:10.37,2013-09-03 02:04:00,
2013-09-02 22:06:00,72.1,66.3,29.75,SW,229,0.0,0.0,82,0.00,,SCT,0.00,WeatherDisplay:10.37,2013-09-03 02:06:00,
2013-09-02 22:07:00,72.1,66.3,29.75,SW,229,0.0,0.0,82,0.00,,SCT,0.00,WeatherDisplay:10.37,2013-09-03 02:07:00,
2013-09-02 22:10:00,72.1,66.3,29.75,SW,229,0.0,0.0,82,0.00,,SCT,0.00,WeatherDisplay:10.37,2013-09-03 02:10:00,
2013-09-02 22:11:00,72.1,66.3,29.75,SW,229,0.0,0.0,82,0.00,,SCT,0.00,WeatherDisplay:10.37,2013-09-03 02:11:00,
2013-09-02 22:12:00,72.1,66.3,29.75,SW,229,0.0,0.0,82,0.00,,SCT,0.00,WeatherDisplay:10.37,2013-09-03 02:12:00,
2013-09-02 22:13:00,72.1,66.3,29.75,SW,229,0.0,0.0,82,0.00,,SCT,0.00,WeatherDisplay:10.37,2013-09-03 02:13:00,
2013-09-02 22:18:00,72.0,66.2,29.76,SW,229,0.0,0.0,82,0.00,,SCT,0.00,WeatherDisplay:10.37,2013-09-03 02:18:00,
2013-09-02 22:19:00,72.0,66.2,29.76,SW,229,0.0,0.0,82,0.00,,SCT,0.00,WeatherDisplay:10.37,2013-09-03 02:19:00,
2013-09-02 22:21:00,72.0,66.2,29.76,SW,229,0.0,0.0,82,0.00,,SCT,0.00,WeatherDisplay:10.37,2013-09-03 02:21:00,
2013-09-02 22:23:00,71.8,66.0,29.76,SW,229,0.0,0.0,82,0.00,,SCT,0.00,WeatherDisplay:10.37,2013-09-03 02:23:00,
2013-09-02 22:24:00,71.8,66.0,29.76,SW,229,0.0,0.0,82,0.00,,SCT,0.00,WeatherDisplay:10.37,2013-09-03 02:24:00,
2013-09-02 22:26:00,71.8,66.0,29.76,SW,229,0.0,0.0,82,0.00,,SCT,0.00,WeatherDisplay:10.37,2013-09-03 02:26:00,
2013-09-02 22:27:00,71.8,66.0,29.75,SW,229,0.0,0.0,82,0.00,,SCT,0.00,WeatherDisplay:10.37,2013-09-03 02:27:00,
2013-09-02 22:30:00,71.8,66.0,29.75,SW,229,0.0,0.0,82,0.00,,SCT,0.00,WeatherDisplay:10.37,2013-09-03 02:30:00,
2013-09-02 22:31:00,71.8,66.0,29.75,SW,229,0.0,0.0,82,0.00,,SCT,0.00,WeatherDisplay:10.37,2013-09-03 02:31:00,
2013-09-02 22:32:00,71.8,66.0,29.75,SW,229,0.0,0.0,82,0.00,,SCT,0.00,WeatherDisplay:10.37,2013-09-03 02:32:00,
2013-09-02 22:34:00,71.8,66.0,29.75,SW,229,0.0,0.0,82,0.00,,SCT,0.00,WeatherDisplay:10.37,2013-09-03 02:34:00,
2013-09-02 22:37:00,71.8,66.0,29.75,SW,229,0.0,0.0,82,0.00,,SCT,0.00,WeatherDisplay:10.37,2013-09-03 02:37:00,
2013-09-02 22:39:00,71.8,66.0,29.75,SW,229,0.0,0.0,82,0.00,,SCT,0.00,WeatherDisplay:10.37,2013-09-03 02:39:00,
2013-09-02 22:42:00,71.8,66.4,29.75,SW,229,0.0,0.0,83,0.00,,SCT,0.00,WeatherDisplay:10.37,2013-09-03 02:42:00,
2013-09-02 22:44:00,71.8,66.4,29.75,SW,229,0.0,0.0,83,0.00,,SCT,0.00,WeatherDisplay:10.37,2013-09-03 02:44:00,
2013-09-02 22:46:00,71.8,66.4,29.75,SW,229,0.0,0.0,83,0.00,,SCT,0.00,WeatherDisplay:10.37,2013-09-03 02:46:00,
2013-09-02 22:47:00,71.8,66.4,29.75,SW,229,0.0,0.0,83,0.00,,SCT,0.00,WeatherDisplay:10.37,2013-09-03 02:47:00,
2013-09-02 22:48:00,71.8,66.4,29.75,SW,229,0.0,0.0,83,0.00,,SCT,0.00,WeatherDisplay:10.37,2013-09-03 02:48:00,
2013-09-02 22:51:00,71.8,66.4,29.75,SW,229,0.0,0.0,83,0.00,,SCT,0.00,WeatherDisplay:10.37,2013-09-03 02:51:00,
2013-09-02 22:52:00,71.8,66.4,29.75,SW,229,0.0,0.0,83,0.00,,SCT,0.00,WeatherDisplay:10.37,2013-09-03 02:52:00,
2013-09-02 22:53:00,71.8,66.4,29.75,SW,229,0.0,0.0,83,0.00,,SCT,0.00,WeatherDisplay:10.37,2013-09-03 02:53:00,
2013-09-02 22:57:00,71.8,66.4,29.75,SW,229,0.0,0.0,83,0.00,,SCT,0.00,WeatherDisplay:10.37,2013-09-03 02:57:00,
2013-09-02 23:00:00,71.6,66.2,29.75,SW,229,0.0,0.0,83,0.00,,SCT,0.00,WeatherDisplay:10.37,2013-09-03 03:00:00,
2013-09-02 23:01:00,71.6,66.2,29.75,SW,229,0.0,0.0,83,0.00,,SCT,0.00,WeatherDisplay:10.37,2013-09-03 03:01:00,
2013-09-02 23:02:00,71.6,66.2,29.75,SW,229,0.0,0.0,83,0.00,,SCT,0.00,WeatherDisplay:10.37,2013-09-03 03:02:00,
2013-09-02 23:03:00,71.6,66.2,29.75,SW,229,0.0,0.0,83,0.00,,SCT,0.00,WeatherDisplay:10.37,2013-09-03 03:03:00,
2013-09-02 23:04:00,71.6,66.2,29.75,SW,229,0.0,0.0,83,0.00,,SCT,0.00,WeatherDisplay:10.37,2013-09-03 03:04:00,
2013-09-02 23:07:00,71.6,66.2,29.75,SW,229,0.0,0.0,83,0.00,,SCT,0.00,WeatherDisplay:10.37,2013-09-03 03:07:00,
2013-09-02 23:09:00,71.6,66.2,29.75,SW,229,0.0,0.0,83,0.00,,SCT,0.00,WeatherDisplay:10.37,2013-09-03 03:09:00,
2013-09-02 23:10:00,71.6,66.2,29.75,SW,229,0.0,0.0,83,0.00,,SCT,0.00,WeatherDisplay:10.37,2013-09-03 03:10:00,
2013-09-02 23:11:00,71.6,66.2,29.75,SW,229,0.0,0.0,83,0.00,,SCT,0.00,WeatherDisplay:10.37,2013-09-03 03:11:00,
2013-09-02 23:13:00,71.6,66.2,29.76,SW,229,0.0,0.0,83,0.00,,SCT,0.00,WeatherDisplay:10.37,2013-09-03 03:13:00,
2013-09-02 23:14:00,71.6,66.2,29.76,SW,229,0.0,0.0,83,0.00,,SCT,0.00,WeatherDisplay:10.37,2013-09-03 03:14:00,
2013-09-02 23:16:00,71.6,66.2,29.76,SW,229,0.0,0.0,83,0.00,,SCT,0.00,WeatherDisplay:10.37,2013-09-03 03:16:00,
2013-09-02 23:17:00,71.6,66.2,29.76,SW,229,0.0,0.0,83,0.00,,SCT,0.00,WeatherDisplay:10.37,2013-09-03 03:17:00,
2013-09-02 23:19:00,71.6,66.2,29.76,SW,229,0.0,0.0,83,0.00,,SCT,0.00,WeatherDisplay:10.37,2013-09-03 03:19:00,
2013-09-02 23:20:00,71.6,66.5,29.76,SW,229,0.0,0.0,84,0.00,,SCT,0.00,WeatherDisplay:10.37,2013-09-03 03:20:00,
2013-09-02 23:22:00,71.6,66.5,29.76,SW,229,0.0,0.0,84,0.00,,SCT,0.00,WeatherDisplay:10.37,2013-09-03 03:22:00,
2013-09-02 23:24:00,71.6,66.2,29.76,SW,229,0.0,0.0,83,0.00,,SCT,0.00,WeatherDisplay:10.37,2013-09-03 03:24:00,
2013-09-02 23:25:00,71.6,66.2,29.76,SW,229,0.0,0.0,83,0.00,,SCT,0.00,WeatherDisplay:10.37,2013-09-03 03:25:00,
2013-09-02 23:27:00,71.6,66.2,29.77,SW,229,0.0,0.0,83,0.00,,SCT,0.00,WeatherDisplay:10.37,2013-09-03 03:27:00,
2013-09-02 23:28:00,71.6,66.2,29.77,SW,229,0.0,0.0,83,0.00,,SCT,0.00,WeatherDisplay:10.37,2013-09-03 03:28:00,
2013-09-02 23:30:00,71.6,66.5,29.77,SW,229,0.0,0.0,84,0.00,,SCT,0.00,WeatherDisplay:10.37,2013-09-03 03:30:00,
2013-09-02 23:31:00,71.6,66.2,29.77,SW,229,0.0,0.0,83,0.00,,SCT,0.00,WeatherDisplay:10.37,2013-09-03 03:31:00,
2013-09-02 23:32:00,71.6,66.2,29.77,SW,229,0.0,0.0,83,0.00,,SCT,0.00,WeatherDisplay:10.37,2013-09-03 03:32:00,
2013-09-02 23:36:00,71.5,66.4,29.77,SW,229,0.0,0.0,84,0.00,,SCT,0.00,WeatherDisplay:10.37,2013-09-03 03:36:00,
2013-09-02 23:37:00,71.5,66.4,29.77,SW,229,0.0,0.0,84,0.00,,SCT,0.00,WeatherDisplay:10.37,2013-09-03 03:37:00,
2013-09-02 23:39:00,71.5,66.4,29.76,SW,229,0.0,0.0,84,0.00,,SCT,0.00,WeatherDisplay:10.37,2013-09-03 03:39:00,
2013-09-02 23:40:00,71.5,66.4,29.76,SW,229,0.0,0.0,84,0.00,,SCT,0.00,WeatherDisplay:10.37,2013-09-03 03:40:00,
2013-09-02 23:42:00,71.5,66.4,29.76,SW,229,0.0,0.0,84,0.00,,SCT,0.00,WeatherDisplay:10.37,2013-09-03 03:42:00,
2013-09-02 23:44:00,71.5,66.4,29.76,SW,229,0.0,0.0,84,0.00,,SCT,0.00,WeatherDisplay:10.37,2013-09-03 03:44:00,
2013-09-02 23:46:00,71.5,66.4,29.76,SW,229,0.0,0.0,84,0.00,,SCT,0.00,WeatherDisplay:10.37,2013-09-03 03:46:00,
2013-09-02 23:49:00,71.5,66.4,29.76,SW,229,0.0,0.0,84,0.00,,SCT,0.00,WeatherDisplay:10.37,2013-09-03 03:49:00,
2013-09-02 23:50:00,71.5,66.4,29.76,SW,229,0.0,0.0,84,0.00,,SCT,0.00,WeatherDisplay:10.37,2013-09-03 03:50:00,
2013-09-02 23:51:00,71.5,66.4,29.76,SW,229,0.0,0.0,84,0.00,,SCT,0.00,WeatherDisplay:10.37,2013-09-03 03:51:00,
2013-09-02 23:55:00,71.3,66.2,29.76,SW,229,0.0,0.0,84,0.00,,SCT,0.00,WeatherDisplay:10.37,2013-09-03 03:55:00,
2013-09-02 23:57:00,71.3,66.2,29.76,SW,229,0.0,0.0,84,0.00,,SCT,0.00,WeatherDisplay:10.37,2013-09-03 03:57:00,
2013-09-02 23:58:00,71.3,66.2,29.76,SW,229,0.0,0.0,84,0.00,,SCT,0.00,WeatherDisplay:10.37,2013-09-03 03:58:00,